Time,TemperatureF,DewpointF,PressureIn,WindDirection,WindDirectionDegrees,WindSpeedMPH,WindSpeedGustMPH,Humidity,HourlyPrecipIn,Conditions,Clouds,dailyrainin,SoftwareType,DateUTC
2013-02-10 00:10:00,59.7,53.2,29.83,SSE,157,8.0,8.0,79,0.00,,,0.00,WUHU21623XXSP,2013-02-10 06:10:00,
2013-02-10 00:15:00,60.3,54.1,29.83,ESE,119,8.0,20.0,80,0.00,,,0.00,WUHU21623XXSP,2013-02-10 06:15:00,
2013-02-10 00:20:00,60.4,54.3,29.82,SE,135,9.0,20.0,80,0.00,,,0.00,WUHU21623XXSP,2013-02-10 06:20:00,
2013-02-10 00:25:00,60.4,54.3,29.82,SE,134,13.0,22.0,80,0.00,,,0.00,WUHU21623XXSP,2013-02-10 06:25:00,
2013-02-10 00:30:00,60.6,54.8,29.82,ESE,112,12.0,22.0,81,0.00,,,0.00,WUHU21623XXSP,2013-02-10 06:30:00,
2013-02-10 00:31:00,60.6,54.8,29.82,SE,143,12.0,22.0,81,0.00,,,0.00,WUHU21623XXSP,2013-02-10 06:31:00,
2013-02-10 00:35:00,60.6,54.8,29.82,SSE,157,12.0,21.0,81,0.00,,,0.00,WUHU21623XXSP,2013-02-10 06:35:00,
2013-02-10 00:36:00,60.6,54.8,29.81,SE,135,13.0,21.0,81,0.00,,,0.00,WUHU21623XXSP,2013-02-10 06:36:00,
2013-02-10 00:40:00,61.0,55.2,29.81,SE,143,9.0,16.0,81,0.00,,,0.00,WUHU21623XXSP,2013-02-10 06:40:00,
2013-02-10 00:41:00,61.0,55.2,29.81,SE,136,7.0,16.0,81,0.00,,,0.00,WUHU21623XXSP,2013-02-10 06:41:00,
2013-02-10 00:46:00,61.0,55.2,29.82,SSE,157,12.0,16.0,81,0.00,,,0.00,WUHU21623XXSP,2013-02-10 06:46:00,
2013-02-10 00:51:00,61.0,55.2,29.81,SSE,157,10.0,19.0,81,0.00,,,0.00,WUHU21623XXSP,2013-02-10 06:51:00,
2013-02-10 00:56:00,61.0,55.2,29.80,SSE,162,9.0,19.0,81,0.00,,,0.00,WUHU21623XXSP,2013-02-10 06:56:00,
2013-02-10 01:10:00,61.2,55.3,29.79,SSE,157,6.0,6.0,81,0.00,,,0.00,WUHU21623XXSP,2013-02-10 07:10:00,
2013-02-10 01:15:00,61.3,55.5,29.77,SSE,162,11.0,18.0,81,0.00,,,0.00,WUHU21623XXSP,2013-02-10 07:15:00,
2013-02-10 01:20:00,61.3,55.5,29.76,SSE,160,11.0,22.0,81,0.00,,,0.00,WUHU21623XXSP,2013-02-10 07:20:00,
2013-02-10 01:25:00,61.3,55.5,29.76,SE,135,22.0,22.0,81,0.00,,,0.00,WUHU21623XXSP,2013-02-10 07:25:00,
2013-02-10 01:30:00,61.5,55.7,29.76,SSE,154,12.0,22.0,81,0.00,,,0.00,WUHU21623XXSP,2013-02-10 07:30:00,
2013-02-10 01:31:00,61.5,55.7,29.76,SSE,154,10.0,22.0,81,0.00,,,0.00,WUHU21623XXSP,2013-02-10 07:31:00,
2013-02-10 01:35:00,61.5,56.0,29.76,SSE,149,8.0,19.0,82,0.00,,,0.00,WUHU21623XXSP,2013-02-10 07:35:00,
2013-02-10 01:36:00,61.5,56.0,29.76,SSE,157,10.0,19.0,82,0.00,,,0.00,WUHU21623XXSP,2013-02-10 07:36:00,
2013-02-10 01:40:00,61.5,56.0,29.76,SSE,156,14.0,23.0,82,0.00,,,0.00,WUHU21623XXSP,2013-02-10 07:40:00,
2013-02-10 01:41:00,61.5,56.0,29.76,SSE,157,18.0,23.0,82,0.00,,,0.00,WUHU21623XXSP,2013-02-10 07:41:00,
2013-02-10 01:45:00,61.7,56.2,29.77,SE,142,10.0,23.0,82,0.00,,,0.00,WUHU21623XXSP,2013-02-10 07:45:00,
2013-02-10 01:46:00,61.7,56.2,29.77,SE,139,9.0,23.0,82,0.00,,,0.00,WUHU21623XXSP,2013-02-10 07:46:00,
2013-02-10 01:50:00,61.7,56.2,29.76,SSE,157,13.0,18.0,82,0.00,,,0.00,WUHU21623XXSP,2013-02-10 07:50:00,
2013-02-10 01:51:00,61.7,56.2,29.76,SE,135,11.0,18.0,82,0.00,,,0.00,WUHU21623XXSP,2013-02-10 07:51:00,
2013-02-10 01:56:00,61.9,56.3,29.77,SSE,157,21.0,21.0,82,0.00,,,0.00,WUHU21623XXSP,2013-02-10 07:56:00,
2013-02-10 02:10:00,61.9,56.3,29.76,SSE,157,10.0,10.0,82,0.00,,,0.00,WUHU21623XXSP,2013-02-10 08:10:00,
2013-02-10 02:15:00,62.2,57.0,29.76,SSE,157,12.0,18.0,83,0.00,,,0.00,WUHU21623XXSP,2013-02-10 08:15:00,
2013-02-10 02:16:00,62.2,57.0,29.76,SE,135,12.0,18.0,83,0.00,,,0.00,WUHU21623XXSP,2013-02-10 08:16:00,
2013-02-10 02:20:00,62.4,57.1,29.75,SSE,151,9.0,21.0,83,0.00,,,0.00,WUHU21623XXSP,2013-02-10 08:20:00,
2013-02-10 02:21:00,62.4,57.1,29.75,SE,140,9.0,21.0,83,0.00,,,0.00,WUHU21623XXSP,2013-02-10 08:21:00,
2013-02-10 02:25:00,62.4,57.1,29.74,SE,135,11.0,21.0,83,0.00,,,0.00,WUHU21623XXSP,2013-02-10 08:25:00,
2013-02-10 02:26:00,62.4,57.1,29.74,SSE,157,10.0,21.0,83,0.00,,,0.00,WUHU21623XXSP,2013-02-10 08:26:00,
2013-02-10 02:30:00,62.6,57.3,29.74,South,174,10.0,22.0,83,0.00,,,0.00,WUHU21623XXSP,2013-02-10 08:30:00,
2013-02-10 02:31:00,62.6,57.4,29.74,SSE,159,11.0,22.0,83,0.00,,,0.00,WUHU21623XXSP,2013-02-10 08:31:00,
2013-02-10 02:35:00,62.8,57.5,29.75,SSE,155,10.0,22.0,83,0.00,,,0.00,WUHU21623XXSP,2013-02-10 08:35:00,
2013-02-10 02:36:00,62.8,57.5,29.75,SSE,156,9.0,22.0,83,0.00,,,0.00,WUHU21623XXSP,2013-02-10 08:36:00,
2013-02-10 02:40:00,63.0,57.7,29.74,SE,135,17.0,17.0,83,0.00,,,0.00,WUHU21623XXSP,2013-02-10 08:40:00,
2013-02-10 02:41:00,63.0,57.7,29.74,SE,135,17.0,17.0,83,0.00,,,0.00,WUHU21623XXSP,2013-02-10 08:41:00,
2013-02-10 02:46:00,63.1,57.9,29.74,SSE,155,9.0,23.0,83,0.00,,,0.00,WUHU21623XXSP,2013-02-10 08:46:00,
2013-02-10 02:51:00,63.1,57.9,29.74,SSE,157,10.0,23.0,83,0.00,,,0.00,WUHU21623XXSP,2013-02-10 08:51:00,
2013-02-10 02:52:00,63.1,57.9,29.74,SSE,163,10.0,23.0,83,0.00,,,0.00,WUHU21623XXSP,2013-02-10 08:52:00,
2013-02-10 02:56:00,63.3,58.0,29.74,SSE,157,18.0,23.0,83,0.00,,,0.00,WUHU21623XXSP,2013-02-10 08:56:00,
2013-02-10 02:57:00,63.3,58.0,29.75,SSE,162,13.0,20.0,83,0.00,,,0.00,WUHU21623XXSP,2013-02-10 08:57:00,
2013-02-10 03:10:00,63.5,58.2,29.75,SSE,157,9.0,9.0,83,0.00,,,0.00,WUHU21623XXSP,2013-02-10 09:10:00,
2013-02-10 03:15:00,63.9,58.6,29.74,South,180,16.0,20.0,83,0.02,,,0.02,WUHU21623XXSP,2013-02-10 09:15:00,
2013-02-10 03:16:00,64.0,58.8,29.74,SSE,157,17.0,20.0,83,0.02,,,0.02,WUHU21623XXSP,2013-02-10 09:16:00,
2013-02-10 03:20:00,64.0,58.8,29.79,SSW,194,6.0,20.0,83,0.02,,,0.02,WUHU21623XXSP,2013-02-10 09:20:00,
2013-02-10 03:21:00,64.0,58.8,29.80,West,270,7.0,20.0,83,0.02,,,0.02,WUHU21623XXSP,2013-02-10 09:21:00,
2013-02-10 03:25:00,64.2,59.3,29.82,WNW,292,17.0,20.0,84,0.02,,,0.02,WUHU21623XXSP,2013-02-10 09:25:00,
2013-02-10 03:26:00,64.2,59.0,29.82,WNW,291,15.0,20.0,83,0.02,,,0.02,WUHU21623XXSP,2013-02-10 09:26:00,
2013-02-10 03:30:00,63.7,57.7,29.82,WNW,301,19.0,44.0,81,0.12,,,0.13,WUHU21623XXSP,2013-02-10 09:30:00,
2013-02-10 03:31:00,63.7,57.7,29.84,SW,225,20.0,44.0,81,0.14,,,0.15,WUHU21623XXSP,2013-02-10 09:31:00,
2013-02-10 03:35:00,63.0,56.8,29.86,WSW,247,23.0,44.0,80,0.35,,,0.33,WUHU21623XXSP,2013-02-10 09:35:00,
2013-02-10 03:36:00,62.8,56.5,29.87,WSW,256,14.0,44.0,80,0.41,,,0.39,WUHU21623XXSP,2013-02-10 09:36:00,
2013-02-10 03:37:00,62.8,56.5,29.87,WSW,256,14.0,44.0,80,0.41,,,0.39,WUHU21623XXSP,2013-02-10 09:37:00,
2013-02-10 03:40:00,62.1,56.1,29.85,SW,226,14.0,43.0,81,0.57,,,0.58,WUHU21623XXSP,2013-02-10 09:40:00,
2013-02-10 03:41:00,62.1,56.1,29.85,SW,226,14.0,43.0,81,0.57,,,0.58,WUHU21623XXSP,2013-02-10 09:41:00,
2013-02-10 03:42:00,61.9,56.0,29.84,West,278,7.0,35.0,81,0.59,,,0.60,WUHU21623XXSP,2013-02-10 09:42:00,
2013-02-10 03:45:00,61.5,55.7,29.83,WSW,248,8.0,22.0,81,0.65,,,0.66,WUHU21623XXSP,2013-02-10 09:45:00,
2013-02-10 03:46:00,61.3,55.5,29.82,SW,225,12.0,22.0,81,0.65,,,0.66,WUHU21623XXSP,2013-02-10 09:46:00,
2013-02-10 03:47:00,61.3,55.5,29.82,WSW,237,9.0,22.0,81,0.65,,,0.66,WUHU21623XXSP,2013-02-10 09:47:00,
2013-02-10 03:51:00,61.0,55.2,29.82,WSW,247,6.0,17.0,81,0.67,,,0.68,WUHU21623XXSP,2013-02-10 09:51:00,
2013-02-10 03:52:00,61.0,55.2,29.82,WSW,250,6.0,17.0,81,0.67,,,0.68,WUHU21623XXSP,2013-02-10 09:52:00,
2013-02-10 03:56:00,61.0,55.5,29.82,SW,220,8.0,12.0,82,0.69,,,0.70,WUHU21623XXSP,2013-02-10 09:56:00,
2013-02-10 03:57:00,61.0,55.5,29.82,WSW,239,6.0,12.0,82,0.69,,,0.70,WUHU21623XXSP,2013-02-10 09:57:00,
2013-02-10 04:10:00,60.8,55.3,29.82,SSW,202,3.0,3.0,82,0.69,,,0.70,WUHU21623XXSP,2013-02-10 10:10:00,
2013-02-10 04:15:00,60.8,55.3,29.83,West,270,8.0,9.0,82,0.73,,,0.74,WUHU21623XXSP,2013-02-10 10:15:00,
2013-02-10 04:20:00,61.0,55.5,29.84,SW,225,6.0,10.0,82,0.73,,,0.76,WUHU21623XXSP,2013-02-10 10:20:00,
2013-02-10 04:25:00,61.0,55.5,29.84,SW,225,5.0,10.0,82,0.75,,,0.78,WUHU21623XXSP,2013-02-10 10:25:00,
2013-02-10 04:26:00,61.0,55.5,29.84,WSW,247,5.0,10.0,82,0.75,,,0.78,WUHU21623XXSP,2013-02-10 10:26:00,
2013-02-10 04:30:00,61.0,55.5,29.83,West,270,4.0,7.0,82,0.77,,,0.78,WUHU21623XXSP,2013-02-10 10:30:00,
2013-02-10 04:31:00,61.0,55.5,29.83,West,272,4.0,7.0,82,0.77,,,0.80,WUHU21623XXSP,2013-02-10 10:31:00,
2013-02-10 04:35:00,60.8,55.3,29.81,West,263,4.0,8.0,82,0.69,,,0.80,WUHU21623XXSP,2013-02-10 10:35:00,
2013-02-10 04:36:00,60.8,55.3,29.81,West,259,2.0,8.0,82,0.65,,,0.82,WUHU21623XXSP,2013-02-10 10:36:00,
2013-02-10 04:40:00,60.6,55.1,29.84,West,270,3.0,8.0,82,0.43,,,0.82,WUHU21623XXSP,2013-02-10 10:40:00,
2013-02-10 04:41:00,60.6,55.1,29.84,West,270,4.0,8.0,82,0.43,,,0.82,WUHU21623XXSP,2013-02-10 10:41:00,
2013-02-10 04:45:00,60.6,55.1,29.84,West,270,3.0,6.0,82,0.29,,,0.82,WUHU21623XXSP,2013-02-10 10:45:00,
2013-02-10 04:46:00,60.6,55.1,29.84,West,276,2.0,6.0,82,0.29,,,0.82,WUHU21623XXSP,2013-02-10 10:46:00,
2013-02-10 04:47:00,60.6,55.1,29.84,West,277,3.0,6.0,82,0.29,,,0.82,WUHU21623XXSP,2013-02-10 10:47:00,
2013-02-10 04:51:00,60.6,55.1,29.85,West,269,7.0,11.0,82,0.20,,,0.82,WUHU21623XXSP,2013-02-10 10:51:00,
2013-02-10 04:52:00,60.6,55.1,29.85,WNW,292,7.0,11.0,82,0.14,,,0.82,WUHU21623XXSP,2013-02-10 10:52:00,
2013-02-10 04:56:00,60.4,55.0,29.82,WSW,247,5.0,11.0,82,0.16,,,0.84,WUHU21623XXSP,2013-02-10 10:56:00,
2013-02-10 04:57:00,60.4,55.0,29.84,WSW,245,6.0,11.0,82,0.16,,,0.84,WUHU21623XXSP,2013-02-10 10:57:00,
2013-02-10 05:10:00,60.4,55.0,29.84,WNW,292,6.0,6.0,82,0.14,,,0.84,WUHU21623XXSP,2013-02-10 11:10:00,
2013-02-10 05:15:00,60.1,54.3,29.84,West,270,5.0,6.0,81,0.14,,,0.84,WUHU21623XXSP,2013-02-10 11:15:00,
2013-02-10 05:20:00,60.1,54.3,29.84,West,270,3.0,7.0,81,0.10,,,0.84,WUHU21623XXSP,2013-02-10 11:20:00,
2013-02-10 05:21:00,60.1,54.3,29.84,West,270,3.0,7.0,81,0.10,,,0.84,WUHU21623XXSP,2013-02-10 11:21:00,
2013-02-10 05:25:00,59.9,54.1,29.85,West,270,3.0,7.0,81,0.08,,,0.84,WUHU21623XXSP,2013-02-10 11:25:00,
2013-02-10 05:26:00,59.9,54.1,29.85,West,273,4.0,9.0,81,0.08,,,0.84,WUHU21623XXSP,2013-02-10 11:26:00,
2013-02-10 05:30:00,59.9,54.1,29.84,West,270,5.0,9.0,81,0.06,,,0.84,WUHU21623XXSP,2013-02-10 11:30:00,
2013-02-10 05:31:00,59.9,54.1,29.84,West,270,4.0,9.0,81,0.06,,,0.84,WUHU21623XXSP,2013-02-10 11:31:00,
2013-02-10 05:35:00,59.7,53.9,29.85,West,270,3.0,9.0,81,0.06,,,0.84,WUHU21623XXSP,2013-02-10 11:35:00,
2013-02-10 05:36:00,59.7,53.9,29.85,West,273,3.0,7.0,81,0.06,,,0.84,WUHU21623XXSP,2013-02-10 11:36:00,
2013-02-10 05:40:00,59.7,53.6,29.86,WSW,258,7.0,10.0,80,0.02,,,0.84,WUHU21623XXSP,2013-02-10 11:40:00,
2013-02-10 05:41:00,59.7,53.6,29.86,West,259,6.0,10.0,80,0.02,,,0.84,WUHU21623XXSP,2013-02-10 11:41:00,
2013-02-10 05:46:00,59.5,53.4,29.86,West,270,5.0,10.0,80,0.02,,,0.84,WUHU21623XXSP,2013-02-10 11:46:00,
2013-02-10 05:51:00,59.5,53.1,29.86,West,262,6.0,10.0,79,0.02,,,0.84,WUHU21623XXSP,2013-02-10 11:51:00,
2013-02-10 05:56:00,59.2,52.3,29.86,WNW,287,4.0,10.0,78,0.02,,,0.84,WUHU21623XXSP,2013-02-10 11:56:00,
2013-02-10 05:57:00,59.2,52.0,29.86,WSW,247,7.0,10.0,77,0.02,,,0.84,WUHU21623XXSP,2013-02-10 11:57:00,
2013-02-10 06:10:00,58.8,49.8,29.86,WNW,292,9.0,9.0,72,0.00,,,0.84,WUHU21623XXSP,2013-02-10 12:10:00,
2013-02-10 06:15:00,58.6,48.1,29.86,West,275,8.0,11.0,68,0.00,,,0.84,WUHU21623XXSP,2013-02-10 12:15:00,
2013-02-10 06:20:00,58.3,47.7,29.86,WNW,292,8.0,11.0,68,0.00,,,0.84,WUHU21623XXSP,2013-02-10 12:20:00,
2013-02-10 06:25:00,57.9,47.0,29.88,WNW,292,8.0,11.0,67,0.00,,,0.84,WUHU21623XXSP,2013-02-10 12:25:00,
2013-02-10 06:30:00,57.6,46.2,29.88,WNW,290,6.0,11.0,66,0.00,,,0.84,WUHU21623XXSP,2013-02-10 12:30:00,
2013-02-10 06:35:00,57.4,45.7,29.87,WNW,292,9.0,11.0,65,0.00,,,0.84,WUHU21623XXSP,2013-02-10 12:35:00,
2013-02-10 06:36:00,57.4,45.3,29.87,WNW,292,9.0,11.0,64,0.00,,,0.84,WUHU21623XXSP,2013-02-10 12:36:00,
2013-02-10 06:40:00,57.0,44.9,29.86,WNW,292,6.0,10.0,64,0.00,,,0.84,WUHU21623XXSP,2013-02-10 12:40:00,
2013-02-10 06:41:00,57.0,44.5,29.86,West,270,7.0,10.0,63,0.00,,,0.84,WUHU21623XXSP,2013-02-10 12:41:00,
2013-02-10 06:42:00,57.0,44.5,29.86,West,270,7.0,10.0,63,0.00,,,0.84,WUHU21623XXSP,2013-02-10 12:42:00,
2013-02-10 06:45:00,57.0,44.5,29.87,WNW,292,8.0,10.0,63,0.00,,,0.84,WUHU21623XXSP,2013-02-10 12:45:00,
2013-02-10 06:46:00,57.0,44.5,29.87,West,270,8.0,10.0,63,0.00,,,0.84,WUHU21623XXSP,2013-02-10 12:46:00,
2013-02-10 06:47:00,57.0,44.5,29.87,WNW,286,7.0,10.0,63,0.00,,,0.84,WUHU21623XXSP,2013-02-10 12:47:00,
2013-02-10 06:50:00,56.8,44.0,29.88,WNW,292,6.0,10.0,62,0.00,,,0.84,WUHU21623XXSP,2013-02-10 12:50:00,
2013-02-10 06:51:00,56.8,44.0,29.88,WNW,291,5.0,10.0,62,0.00,,,0.84,WUHU21623XXSP,2013-02-10 12:51:00,
2013-02-10 06:52:00,56.8,44.0,29.88,WNW,292,8.0,10.0,62,0.00,,,0.84,WUHU21623XXSP,2013-02-10 12:52:00,
2013-02-10 06:55:00,56.8,43.6,29.88,WNW,292,5.0,10.0,61,0.00,,,0.84,WUHU21623XXSP,2013-02-10 12:55:00,
2013-02-10 06:56:00,56.8,43.6,29.88,WNW,292,5.0,10.0,61,0.00,,,0.84,WUHU21623XXSP,2013-02-10 12:56:00,
2013-02-10 06:58:00,56.7,43.4,29.87,WNW,286,5.0,10.0,61,0.00,,,0.84,WUHU21623XXSP,2013-02-10 12:58:00,
2013-02-10 07:01:00,56.5,43.2,29.87,WNW,292,8.0,9.0,61,0.00,,,0.84,WUHU21623XXSP,2013-02-10 13:01:00,
2013-02-10 07:03:00,56.5,42.8,29.88,WNW,292,7.0,9.0,60,0.00,,,0.84,WUHU21623XXSP,2013-02-10 13:03:00,
2013-02-10 07:06:00,56.3,42.6,29.88,WNW,292,7.0,9.0,60,0.00,,,0.84,WUHU21623XXSP,2013-02-10 13:06:00,
2013-02-10 07:07:00,56.3,42.6,29.88,WNW,292,6.0,9.0,60,0.00,,,0.84,WUHU21623XXSP,2013-02-10 13:07:00,
2013-02-10 07:08:00,56.3,42.6,29.88,WNW,287,6.0,9.0,60,0.00,,,0.84,WUHU21623XXSP,2013-02-10 13:08:00,
2013-02-10 07:11:00,56.1,42.4,29.89,WNW,292,5.0,10.0,60,0.00,,,0.84,WUHU21623XXSP,2013-02-10 13:11:00,
2013-02-10 07:12:00,56.1,42.4,29.89,WNW,292,6.0,10.0,60,0.00,,,0.84,WUHU21623XXSP,2013-02-10 13:12:00,
2013-02-10 07:13:00,56.1,42.0,29.89,WNW,289,6.0,10.0,59,0.00,,,0.84,WUHU21623XXSP,2013-02-10 13:13:00,
2013-02-10 07:16:00,56.1,42.0,29.89,WNW,290,4.0,10.0,59,0.00,,,0.84,WUHU21623XXSP,2013-02-10 13:16:00,
2013-02-10 07:17:00,55.9,41.8,29.89,WNW,292,5.0,10.0,59,0.00,,,0.84,WUHU21623XXSP,2013-02-10 13:17:00,
2013-02-10 07:18:00,55.9,41.3,29.89,WNW,292,8.0,10.0,58,0.00,,,0.84,WUHU21623XXSP,2013-02-10 13:18:00,
2013-02-10 07:21:00,55.9,41.3,29.89,WNW,292,4.0,9.0,58,0.00,,,0.84,WUHU21623XXSP,2013-02-10 13:21:00,
2013-02-10 07:22:00,55.9,41.3,29.89,NW,315,4.0,8.0,58,0.00,,,0.84,WUHU21623XXSP,2013-02-10 13:22:00,
2013-02-10 07:23:00,55.9,41.3,29.90,West,270,6.0,8.0,58,0.00,,,0.84,WUHU21623XXSP,2013-02-10 13:23:00,
2013-02-10 07:26:00,55.9,41.8,29.90,West,281,4.0,8.0,59,0.00,,,0.84,WUHU21623XXSP,2013-02-10 13:26:00,
2013-02-10 07:27:00,55.9,41.8,29.90,WNW,285,4.0,8.0,59,0.00,,,0.84,WUHU21623XXSP,2013-02-10 13:27:00,
2013-02-10 07:28:00,55.9,41.8,29.90,WNW,288,4.0,8.0,59,0.00,,,0.84,WUHU21623XXSP,2013-02-10 13:28:00,
2013-02-10 07:31:00,55.9,41.8,29.90,NW,315,5.0,8.0,59,0.00,,,0.84,WUHU21623XXSP,2013-02-10 13:31:00,
2013-02-10 07:32:00,55.8,41.6,29.90,WNW,296,4.0,8.0,59,0.00,,,0.84,WUHU21623XXSP,2013-02-10 13:32:00,
2013-02-10 07:33:00,55.9,41.8,29.90,WNW,292,4.0,8.0,59,0.00,,,0.84,WUHU21623XXSP,2013-02-10 13:33:00,
2013-02-10 07:36:00,55.8,41.1,29.90,WNW,290,4.0,8.0,58,0.00,,,0.84,WUHU21623XXSP,2013-02-10 13:36:00,
2013-02-10 07:37:00,55.8,41.1,29.90,West,270,4.0,7.0,58,0.00,,,0.84,WUHU21623XXSP,2013-02-10 13:37:00,
2013-02-10 07:39:00,55.8,41.1,29.90,WNW,292,5.0,7.0,58,0.00,,,0.84,WUHU21623XXSP,2013-02-10 13:39:00,
2013-02-10 07:42:00,55.8,41.1,29.90,WNW,283,3.0,7.0,58,0.00,,,0.84,WUHU21623XXSP,2013-02-10 13:42:00,
2013-02-10 07:44:00,55.6,41.4,29.91,WNW,282,3.0,7.0,59,0.00,,,0.84,WUHU21623XXSP,2013-02-10 13:44:00,
2013-02-10 07:47:00,55.6,41.4,29.91,West,270,5.0,7.0,59,0.00,,,0.84,WUHU21623XXSP,2013-02-10 13:47:00,
2013-02-10 07:49:00,55.6,41.4,29.91,WSW,247,5.0,7.0,59,0.00,,,0.84,WUHU21623XXSP,2013-02-10 13:49:00,
2013-02-10 07:52:00,55.6,41.9,29.91,WNW,284,3.0,7.0,60,0.00,,,0.84,WUHU21623XXSP,2013-02-10 13:52:00,
2013-02-10 07:53:00,55.6,41.9,29.91,WNW,292,2.0,7.0,60,0.00,,,0.84,WUHU21623XXSP,2013-02-10 13:53:00,
2013-02-10 07:54:00,55.6,41.9,29.91,West,268,3.0,7.0,60,0.00,,,0.84,WUHU21623XXSP,2013-02-10 13:54:00,
2013-02-10 07:57:00,55.6,41.9,29.91,West,267,3.0,7.0,60,0.00,,,0.84,WUHU21623XXSP,2013-02-10 13:57:00,
2013-02-10 07:58:00,55.6,41.9,29.91,West,270,3.0,7.0,60,0.00,,,0.84,WUHU21623XXSP,2013-02-10 13:58:00,
2013-02-10 07:59:00,55.6,41.9,29.91,WNW,284,3.0,5.0,60,0.00,,,0.84,WUHU21623XXSP,2013-02-10 13:59:00,
2013-02-10 08:02:00,55.6,41.9,29.91,West,272,3.0,5.0,60,0.00,,,0.84,WUHU21623XXSP,2013-02-10 14:02:00,
2013-02-10 08:03:00,55.6,41.9,29.91,West,275,3.0,5.0,60,0.00,,,0.84,WUHU21623XXSP,2013-02-10 14:03:00,
2013-02-10 08:05:00,55.6,41.9,29.91,West,276,3.0,5.0,60,0.00,,,0.84,WUHU21623XXSP,2013-02-10 14:05:00,
2013-02-10 08:07:00,55.6,41.4,29.91,WNW,283,3.0,7.0,59,0.00,,,0.84,WUHU21623XXSP,2013-02-10 14:07:00,
2013-02-10 08:08:00,55.6,41.4,29.91,NW,315,3.0,7.0,59,0.00,,,0.84,WUHU21623XXSP,2013-02-10 14:08:00,
2013-02-10 08:10:00,55.6,41.4,29.91,WNW,292,4.0,7.0,59,0.00,,,0.84,WUHU21623XXSP,2013-02-10 14:10:00,
2013-02-10 08:12:00,55.6,41.0,29.91,West,270,4.0,7.0,58,0.00,,,0.84,WUHU21623XXSP,2013-02-10 14:12:00,
2013-02-10 08:13:00,55.6,41.0,29.91,WNW,292,5.0,7.0,58,0.00,,,0.84,WUHU21623XXSP,2013-02-10 14:13:00,
2013-02-10 08:15:00,55.6,41.0,29.91,WNW,285,4.0,7.0,58,0.00,,,0.84,WUHU21623XXSP,2013-02-10 14:15:00,
2013-02-10 08:17:00,55.6,41.0,29.91,WNW,292,3.0,6.0,58,0.00,,,0.84,WUHU21623XXSP,2013-02-10 14:17:00,
2013-02-10 08:18:00,55.6,41.0,29.91,NW,315,5.0,6.0,58,0.00,,,0.84,WUHU21623XXSP,2013-02-10 14:18:00,
2013-02-10 08:20:00,55.6,40.5,29.91,WNW,288,5.0,7.0,57,0.00,,,0.84,WUHU21623XXSP,2013-02-10 14:20:00,
2013-02-10 08:23:00,55.6,40.5,29.92,West,280,4.0,9.0,57,0.00,,,0.84,WUHU21623XXSP,2013-02-10 14:23:00,
2013-02-10 08:25:00,55.6,40.5,29.92,WNW,292,4.0,9.0,57,0.00,,,0.84,WUHU21623XXSP,2013-02-10 14:25:00,
2013-02-10 08:28:00,55.6,40.5,29.92,West,280,3.0,9.0,57,0.02,,,0.86,WUHU21623XXSP,2013-02-10 14:28:00,
2013-02-10 08:30:00,55.6,40.5,29.92,West,270,7.0,9.0,57,0.02,,,0.86,WUHU21623XXSP,2013-02-10 14:30:00,
2013-02-10 08:33:00,55.6,40.5,29.92,West,272,4.0,7.0,57,0.02,,,0.86,WUHU21623XXSP,2013-02-10 14:33:00,
2013-02-10 08:35:00,55.8,40.7,29.92,WNW,282,4.0,7.0,57,0.02,,,0.86,WUHU21623XXSP,2013-02-10 14:35:00,
2013-02-10 08:38:00,55.8,40.2,29.93,WNW,292,9.0,9.0,56,0.02,,,0.86,WUHU21623XXSP,2013-02-10 14:38:00,
2013-02-10 08:39:00,55.8,40.2,29.93,WNW,282,5.0,9.0,56,0.02,,,0.86,WUHU21623XXSP,2013-02-10 14:39:00,
2013-02-10 08:40:00,55.8,40.2,29.94,WSW,247,7.0,9.0,56,0.02,,,0.86,WUHU21623XXSP,2013-02-10 14:40:00,
2013-02-10 08:43:00,55.9,39.9,29.93,West,276,5.0,9.0,55,0.02,,,0.86,WUHU21623XXSP,2013-02-10 14:43:00,
2013-02-10 08:44:00,55.9,39.9,29.93,WNW,292,5.0,9.0,55,0.02,,,0.86,WUHU21623XXSP,2013-02-10 14:44:00,
2013-02-10 08:45:00,55.9,39.9,29.93,WSW,247,9.0,9.0,55,0.02,,,0.86,WUHU21623XXSP,2013-02-10 14:45:00,
2013-02-10 08:48:00,55.9,39.5,29.93,West,270,6.0,9.0,54,0.02,,,0.86,WUHU21623XXSP,2013-02-10 14:48:00,
2013-02-10 08:49:00,55.9,39.5,29.93,WNW,292,7.0,9.0,54,0.02,,,0.86,WUHU21623XXSP,2013-02-10 14:49:00,
2013-02-10 08:51:00,55.9,39.0,29.93,WNW,282,6.0,9.0,53,0.02,,,0.86,WUHU21623XXSP,2013-02-10 14:51:00,
2013-02-10 08:53:00,56.1,39.2,29.93,WSW,247,6.0,9.0,53,0.02,,,0.86,WUHU21623XXSP,2013-02-10 14:53:00,
2013-02-10 08:54:00,56.1,39.2,29.94,West,279,4.0,9.0,53,0.02,,,0.86,WUHU21623XXSP,2013-02-10 14:54:00,
2013-02-10 08:56:00,56.1,39.2,29.94,NW,315,4.0,9.0,53,0.02,,,0.86,WUHU21623XXSP,2013-02-10 14:56:00,
2013-02-10 08:58:00,56.1,39.2,29.93,West,281,4.0,8.0,53,0.02,,,0.86,WUHU21623XXSP,2013-02-10 14:58:00,
2013-02-10 08:59:00,56.1,38.7,29.93,WNW,282,5.0,8.0,52,0.02,,,0.86,WUHU21623XXSP,2013-02-10 14:59:00,
2013-02-10 09:01:00,56.3,39.3,29.93,WNW,296,5.0,9.0,53,0.02,,,0.86,WUHU21623XXSP,2013-02-10 15:01:00,
2013-02-10 09:03:00,56.3,39.3,29.93,WNW,292,5.0,9.0,53,0.02,,,0.86,WUHU21623XXSP,2013-02-10 15:03:00,
2013-02-10 09:04:00,56.3,38.9,29.93,WSW,258,6.0,10.0,52,0.02,,,0.86,WUHU21623XXSP,2013-02-10 15:04:00,
2013-02-10 09:05:00,56.3,38.9,29.93,WSW,247,9.0,10.0,52,0.02,,,0.86,WUHU21623XXSP,2013-02-10 15:05:00,
2013-02-10 09:06:00,56.5,38.6,29.93,West,271,4.0,10.0,51,0.02,,,0.86,WUHU21623XXSP,2013-02-10 15:06:00,
2013-02-10 09:08:00,56.5,38.6,29.93,WNW,293,5.0,10.0,51,0.02,,,0.86,WUHU21623XXSP,2013-02-10 15:08:00,
2013-02-10 09:09:00,56.5,38.6,29.93,WNW,292,9.0,12.0,51,0.02,,,0.86,WUHU21623XXSP,2013-02-10 15:09:00,
2013-02-10 09:10:00,56.5,38.6,29.93,West,272,6.0,12.0,51,0.02,,,0.86,WUHU21623XXSP,2013-02-10 15:10:00,
2013-02-10 09:11:00,56.5,38.1,29.93,West,270,6.0,12.0,50,0.02,,,0.86,WUHU21623XXSP,2013-02-10 15:11:00,
2013-02-10 09:14:00,56.7,37.7,29.93,WNW,292,8.0,12.0,49,0.02,,,0.86,WUHU21623XXSP,2013-02-10 15:14:00,
2013-02-10 09:15:00,56.8,37.9,29.93,West,279,7.0,12.0,49,0.02,,,0.86,WUHU21623XXSP,2013-02-10 15:15:00,
2013-02-10 09:16:00,56.8,37.9,29.93,West,270,12.0,12.0,49,0.02,,,0.86,WUHU21623XXSP,2013-02-10 15:16:00,
2013-02-10 09:19:00,56.8,37.3,29.93,NW,315,14.0,14.0,48,0.02,,,0.86,WUHU21623XXSP,2013-02-10 15:19:00,
2013-02-10 09:20:00,56.8,36.8,29.93,WNW,292,10.0,14.0,47,0.02,,,0.86,WUHU21623XXSP,2013-02-10 15:20:00,
2013-02-10 09:21:00,57.0,36.9,29.93,WNW,292,11.0,14.0,47,0.02,,,0.86,WUHU21623XXSP,2013-02-10 15:21:00,
2013-02-10 09:24:00,57.0,36.9,29.94,West,270,10.0,14.0,48,0.02,,,0.86,WUHU21623XXSP,2013-02-10 15:24:00,
2013-02-10 09:25:00,57.0,36.9,29.94,WNW,292,9.0,14.0,47,0.00,,,0.86,WUHU21623XXSP,2013-02-10 15:25:00,
2013-02-10 09:26:00,57.0,36.9,29.94,WNW,292,9.0,14.0,47,0.00,,,0.86,WUHU21623XXSP,2013-02-10 15:26:00,
2013-02-10 09:29:00,57.0,36.4,29.95,WNW,286,8.0,14.0,46,0.00,,,0.86,WUHU21623XXSP,2013-02-10 15:29:00,
2013-02-10 09:30:00,57.0,36.4,29.95,WNW,292,6.0,14.0,46,0.00,,,0.86,WUHU21623XXSP,2013-02-10 15:30:00,
2013-02-10 09:31:00,57.0,36.4,29.94,WNW,292,5.0,14.0,46,0.00,,,0.86,WUHU21623XXSP,2013-02-10 15:31:00,
2013-02-10 09:34:00,57.0,36.9,29.94,West,275,6.0,14.0,47,0.00,,,0.86,WUHU21623XXSP,2013-02-10 15:34:00,
2013-02-10 09:35:00,57.0,36.9,29.94,West,262,6.0,14.0,47,0.00,,,0.86,WUHU21623XXSP,2013-02-10 15:35:00,
2013-02-10 09:36:00,57.0,36.9,29.94,SW,225,7.0,11.0,47,0.00,,,0.86,WUHU21623XXSP,2013-02-10 15:36:00,
2013-02-10 09:39:00,57.0,36.9,29.95,West,270,5.0,11.0,47,0.00,,,0.86,WUHU21623XXSP,2013-02-10 15:39:00,
2013-02-10 09:40:00,57.0,36.4,29.95,West,270,12.0,12.0,46,0.00,,,0.86,WUHU21623XXSP,2013-02-10 15:40:00,
2013-02-10 09:41:00,57.0,36.4,29.95,West,278,8.0,12.0,46,0.00,,,0.86,WUHU21623XXSP,2013-02-10 15:41:00,
2013-02-10 09:44:00,57.0,35.8,29.95,West,270,7.0,12.0,45,0.00,,,0.86,WUHU21623XXSP,2013-02-10 15:44:00,
2013-02-10 09:45:00,57.0,35.8,29.95,West,270,7.0,12.0,45,0.00,,,0.86,WUHU21623XXSP,2013-02-10 15:45:00,
2013-02-10 09:46:00,57.0,35.8,29.95,West,275,5.0,12.0,45,0.00,,,0.86,WUHU21623XXSP,2013-02-10 15:46:00,
2013-02-10 09:47:00,57.0,35.8,29.95,West,270,5.0,12.0,45,0.00,,,0.86,WUHU21623XXSP,2013-02-10 15:47:00,
2013-02-10 09:49:00,57.0,36.4,29.95,West,267,8.0,12.0,46,0.00,,,0.86,WUHU21623XXSP,2013-02-10 15:49:00,
2013-02-10 09:50:00,57.0,35.8,29.96,West,273,8.0,12.0,45,0.00,,,0.86,WUHU21623XXSP,2013-02-10 15:50:00,
2013-02-10 09:51:00,57.0,35.8,29.96,WNW,292,7.0,12.0,45,0.00,,,0.86,WUHU21623XXSP,2013-02-10 15:51:00,
2013-02-10 09:52:00,57.0,35.8,29.96,West,269,6.0,12.0,45,0.00,,,0.86,WUHU21623XXSP,2013-02-10 15:52:00,
2013-02-10 09:54:00,57.0,36.4,29.96,WSW,251,9.0,13.0,46,0.00,,,0.86,WUHU21623XXSP,2013-02-10 15:54:00,
2013-02-10 09:56:00,57.0,35.8,29.95,WSW,255,6.0,13.0,45,0.00,,,0.86,WUHU21623XXSP,2013-02-10 15:56:00,
2013-02-10 09:57:00,57.0,36.4,29.95,West,260,5.0,13.0,46,0.00,,,0.86,WUHU21623XXSP,2013-02-10 15:57:00,
2013-02-10 10:00:00,57.0,36.4,29.95,West,269,7.0,13.0,46,0.00,,,0.86,WUHU21623XXSP,2013-02-10 16:00:00,
2013-02-10 10:01:00,57.0,36.4,29.95,WSW,247,13.0,13.0,46,0.00,,,0.86,WUHU21623XXSP,2013-02-10 16:01:00,
2013-02-10 10:02:00,57.0,35.8,29.95,West,262,7.0,13.0,45,0.00,,,0.86,WUHU21623XXSP,2013-02-10 16:02:00,
2013-02-10 10:05:00,57.0,35.8,29.96,WNW,292,9.0,13.0,45,0.00,,,0.86,WUHU21623XXSP,2013-02-10 16:05:00,
2013-02-10 10:06:00,57.2,36.0,29.96,West,270,6.0,13.0,45,0.00,,,0.86,WUHU21623XXSP,2013-02-10 16:06:00,
2013-02-10 10:07:00,57.0,35.8,29.95,SW,225,9.0,13.0,45,0.00,,,0.86,WUHU21623XXSP,2013-02-10 16:07:00,
2013-02-10 10:10:00,57.2,36.5,29.96,WSW,254,6.0,13.0,46,0.00,,,0.86,WUHU21623XXSP,2013-02-10 16:10:00,
2013-02-10 10:11:00,57.4,36.7,29.96,West,270,13.0,13.0,46,0.00,,,0.86,WUHU21623XXSP,2013-02-10 16:11:00,
2013-02-10 10:12:00,57.4,36.7,29.96,West,266,9.0,13.0,46,0.00,,,0.86,WUHU21623XXSP,2013-02-10 16:12:00,
2013-02-10 10:15:00,57.4,36.1,29.96,WNW,292,7.0,13.0,45,0.00,,,0.86,WUHU21623XXSP,2013-02-10 16:15:00,
2013-02-10 10:16:00,57.4,36.1,29.96,WSW,247,7.0,13.0,45,0.00,,,0.86,WUHU21623XXSP,2013-02-10 16:16:00,
2013-02-10 10:17:00,57.4,36.1,29.96,West,261,6.0,13.0,45,0.00,,,0.86,WUHU21623XXSP,2013-02-10 16:17:00,
2013-02-10 10:20:00,57.4,36.1,29.96,WNW,292,6.0,13.0,45,0.00,,,0.86,WUHU21623XXSP,2013-02-10 16:20:00,
2013-02-10 10:21:00,57.4,36.1,29.96,West,270,6.0,12.0,45,0.00,,,0.86,WUHU21623XXSP,2013-02-10 16:21:00,
2013-02-10 10:22:00,57.4,36.1,29.96,West,280,6.0,12.0,45,0.00,,,0.86,WUHU21623XXSP,2013-02-10 16:22:00,
2013-02-10 10:25:00,57.4,35.5,29.96,West,275,7.0,17.0,44,0.00,,,0.86,WUHU21623XXSP,2013-02-10 16:25:00,
2013-02-10 10:27:00,57.6,35.7,29.96,West,271,7.0,17.0,44,0.00,,,0.86,WUHU21623XXSP,2013-02-10 16:27:00,
2013-02-10 10:28:00,57.6,35.7,29.96,West,270,8.0,17.0,44,0.00,,,0.86,WUHU21623XXSP,2013-02-10 16:28:00,
2013-02-10 10:30:00,57.7,36.4,29.96,WSW,247,6.0,17.0,45,0.00,,,0.86,WUHU21623XXSP,2013-02-10 16:30:00,
2013-02-10 10:32:00,57.7,36.4,29.95,West,270,7.0,17.0,45,0.00,,,0.86,WUHU21623XXSP,2013-02-10 16:32:00,
2013-02-10 10:33:00,57.7,36.4,29.95,West,269,5.0,13.0,45,0.00,,,0.86,WUHU21623XXSP,2013-02-10 16:33:00,
2013-02-10 10:35:00,57.9,36.6,29.96,West,270,7.0,9.0,45,0.00,,,0.86,WUHU21623XXSP,2013-02-10 16:35:00,
2013-02-10 10:37:00,57.9,36.6,29.95,West,272,7.0,10.0,45,0.00,,,0.86,WUHU21623XXSP,2013-02-10 16:37:00,
2013-02-10 10:38:00,57.9,36.0,29.95,WNW,290,7.0,10.0,44,0.00,,,0.86,WUHU21623XXSP,2013-02-10 16:38:00,
2013-02-10 10:40:00,58.1,35.6,29.95,WSW,247,11.0,11.0,43,0.00,,,0.86,WUHU21623XXSP,2013-02-10 16:40:00,
2013-02-10 10:42:00,58.1,35.0,29.95,West,265,10.0,19.0,42,0.00,,,0.86,WUHU21623XXSP,2013-02-10 16:42:00,
2013-02-10 10:43:00,58.1,35.0,29.95,West,269,10.0,19.0,42,0.00,,,0.86,WUHU21623XXSP,2013-02-10 16:43:00,
2013-02-10 10:45:00,58.3,35.2,29.95,WNW,282,5.0,19.0,42,0.00,,,0.86,WUHU21623XXSP,2013-02-10 16:45:00,
2013-02-10 10:47:00,58.3,35.8,29.95,West,270,9.0,19.0,43,0.00,,,0.86,WUHU21623XXSP,2013-02-10 16:47:00,
2013-02-10 10:48:00,58.3,35.8,29.96,WNW,284,6.0,19.0,43,0.00,,,0.86,WUHU21623XXSP,2013-02-10 16:48:00,
2013-02-10 10:51:00,58.5,35.9,29.95,WNW,292,6.0,19.0,43,0.00,,,0.86,WUHU21623XXSP,2013-02-10 16:51:00,
2013-02-10 10:52:00,58.5,35.4,29.95,WNW,287,5.0,10.0,42,0.00,,,0.86,WUHU21623XXSP,2013-02-10 16:52:00,
2013-02-10 10:53:00,58.6,35.5,29.95,WNW,284,6.0,10.0,42,0.00,,,0.86,WUHU21623XXSP,2013-02-10 16:53:00,
2013-02-10 10:56:00,58.8,35.1,29.96,WNW,285,7.0,13.0,41,0.00,,,0.86,WUHU21623XXSP,2013-02-10 16:56:00,
2013-02-10 10:57:00,58.8,35.1,29.95,West,270,7.0,13.0,41,0.00,,,0.86,WUHU21623XXSP,2013-02-10 16:57:00,
2013-02-10 10:58:00,58.8,35.1,29.95,West,261,7.0,13.0,41,0.00,,,0.86,WUHU21623XXSP,2013-02-10 16:58:00,
2013-02-10 11:01:00,58.8,35.1,29.95,West,270,9.0,13.0,41,0.00,,,0.86,WUHU21623XXSP,2013-02-10 17:01:00,
2013-02-10 11:02:00,58.8,35.1,29.96,West,279,6.0,13.0,41,0.00,,,0.86,WUHU21623XXSP,2013-02-10 17:02:00,
2013-02-10 11:04:00,58.8,35.1,29.96,WNW,291,8.0,13.0,41,0.00,,,0.86,WUHU21623XXSP,2013-02-10 17:04:00,
2013-02-10 11:06:00,58.8,35.1,29.96,WNW,292,7.0,11.0,41,0.00,,,0.86,WUHU21623XXSP,2013-02-10 17:06:00,
2013-02-10 11:07:00,58.8,35.1,29.96,SW,225,6.0,11.0,41,0.00,,,0.86,WUHU21623XXSP,2013-02-10 17:07:00,
2013-02-10 11:08:00,58.8,35.1,29.96,West,269,4.0,11.0,41,0.00,,,0.86,WUHU21623XXSP,2013-02-10 17:08:00,
2013-02-10 11:09:00,58.8,35.1,29.95,WSW,247,12.0,12.0,41,0.00,,,0.86,WUHU21623XXSP,2013-02-10 17:09:00,
2013-02-10 11:11:00,58.8,35.1,29.96,West,260,7.0,16.0,41,0.00,,,0.86,WUHU21623XXSP,2013-02-10 17:11:00,
2013-02-10 11:12:00,59.2,35.4,29.97,West,262,8.0,16.0,41,0.00,,,0.86,WUHU21623XXSP,2013-02-10 17:12:00,
2013-02-10 11:13:00,59.0,35.3,29.97,West,268,8.0,16.0,41,0.00,,,0.86,WUHU21623XXSP,2013-02-10 17:13:00,
2013-02-10 11:14:00,59.0,35.3,29.97,West,261,8.0,16.0,41,0.00,,,0.86,WUHU21623XXSP,2013-02-10 17:14:00,
2013-02-10 11:16:00,59.2,35.4,29.97,West,270,11.0,16.0,41,0.00,,,0.86,WUHU21623XXSP,2013-02-10 17:16:00,
2013-02-10 11:17:00,59.2,35.4,29.97,West,264,9.0,16.0,41,0.00,,,0.86,WUHU21623XXSP,2013-02-10 17:17:00,
2013-02-10 11:18:00,59.2,34.9,29.97,West,272,8.0,16.0,40,0.00,,,0.86,WUHU21623XXSP,2013-02-10 17:18:00,
2013-02-10 11:19:00,59.4,34.9,29.97,WSW,247,7.0,16.0,40,0.00,,,0.86,WUHU21623XXSP,2013-02-10 17:19:00,
2013-02-10 11:22:00,59.4,35.0,29.96,West,270,7.0,13.0,40,0.00,,,0.86,WUHU21623XXSP,2013-02-10 17:22:00,
2013-02-10 11:23:00,59.4,35.0,29.96,WNW,292,7.0,12.0,40,0.00,,,0.86,WUHU21623XXSP,2013-02-10 17:23:00,
2013-02-10 11:24:00,59.4,35.0,29.96,West,270,8.0,12.0,40,0.00,,,0.86,WUHU21623XXSP,2013-02-10 17:24:00,
2013-02-10 11:27:00,59.5,35.2,29.96,WNW,292,10.0,12.0,40,0.00,,,0.86,WUHU21623XXSP,2013-02-10 17:27:00,
2013-02-10 11:28:00,59.5,35.2,29.96,WNW,290,9.0,12.0,40,0.00,,,0.86,WUHU21623XXSP,2013-02-10 17:28:00,
2013-02-10 11:29:00,59.5,35.2,29.96,West,270,8.0,12.0,40,0.00,,,0.86,WUHU21623XXSP,2013-02-10 17:29:00,
2013-02-10 11:32:00,59.5,34.5,29.96,West,272,7.0,12.0,39,0.00,,,0.86,WUHU21623XXSP,2013-02-10 17:32:00,
2013-02-10 11:33:00,59.5,34.5,29.96,WSW,247,7.0,12.0,39,0.00,,,0.86,WUHU21623XXSP,2013-02-10 17:33:00,
2013-02-10 11:35:00,59.7,34.6,29.96,West,273,5.0,12.0,39,0.00,,,0.86,WUHU21623XXSP,2013-02-10 17:35:00,
2013-02-10 11:37:00,59.5,34.5,29.95,WNW,292,7.0,12.0,39,0.00,,,0.86,WUHU21623XXSP,2013-02-10 17:37:00,
2013-02-10 11:38:00,59.7,34.6,29.95,West,270,9.0,12.0,39,0.00,,,0.86,WUHU21623XXSP,2013-02-10 17:38:00,
2013-02-10 11:40:00,59.7,34.6,29.95,West,268,6.0,12.0,39,0.00,,,0.86,WUHU21623XXSP,2013-02-10 17:40:00,
2013-02-10 11:42:00,59.7,34.6,29.95,West,270,8.0,12.0,39,0.00,,,0.86,WUHU21623XXSP,2013-02-10 17:42:00,
2013-02-10 11:43:00,59.7,33.9,29.95,West,267,7.0,12.0,38,0.00,,,0.86,WUHU21623XXSP,2013-02-10 17:43:00,
2013-02-10 11:45:00,59.7,34.6,29.95,West,272,4.0,10.0,39,0.00,,,0.86,WUHU21623XXSP,2013-02-10 17:45:00,
2013-02-10 11:47:00,59.9,34.6,29.95,West,263,7.0,12.0,39,0.00,,,0.86,WUHU21623XXSP,2013-02-10 17:47:00,
2013-02-10 11:48:00,59.9,34.8,29.95,West,268,6.0,12.0,39,0.00,,,0.86,WUHU21623XXSP,2013-02-10 17:48:00,
2013-02-10 11:50:00,60.1,35.0,29.95,WSW,258,6.0,12.0,39,0.00,,,0.86,WUHU21623XXSP,2013-02-10 17:50:00,
2013-02-10 11:52:00,60.1,34.2,29.95,WNW,293,6.0,12.0,38,0.00,,,0.86,WUHU21623XXSP,2013-02-10 17:52:00,
2013-02-10 11:53:00,60.1,34.2,29.95,West,270,9.0,12.0,38,0.00,,,0.86,WUHU21623XXSP,2013-02-10 17:53:00,
2013-02-10 11:55:00,60.1,34.2,29.95,West,274,7.0,12.0,38,0.00,,,0.86,WUHU21623XXSP,2013-02-10 17:55:00,
2013-02-10 11:57:00,60.4,35.3,29.95,WNW,284,5.0,12.0,39,0.00,,,0.86,WUHU21623XXSP,2013-02-10 17:57:00,
2013-02-10 11:58:00,60.4,35.3,29.95,WNW,292,10.0,12.0,39,0.00,,,0.86,WUHU21623XXSP,2013-02-10 17:58:00,
2013-02-10 12:01:00,60.4,34.6,29.94,WNW,292,7.0,12.0,38,0.00,,,0.86,WUHU21623XXSP,2013-02-10 18:01:00,
2013-02-10 12:02:00,60.6,34.0,29.94,WNW,297,9.0,12.0,37,0.00,,,0.86,WUHU21623XXSP,2013-02-10 18:02:00,
2013-02-10 12:03:00,60.6,34.0,29.94,WNW,300,9.0,12.0,37,0.00,,,0.86,WUHU21623XXSP,2013-02-10 18:03:00,
2013-02-10 12:04:00,60.6,34.0,29.94,WNW,299,8.0,12.0,37,0.00,,,0.86,WUHU21623XXSP,2013-02-10 18:04:00,
2013-02-10 12:06:00,60.6,34.0,29.94,WNW,292,5.0,12.0,37,0.00,,,0.86,WUHU21623XXSP,2013-02-10 18:06:00,
2013-02-10 12:08:00,60.6,34.0,29.94,West,270,8.0,12.0,37,0.00,,,0.86,WUHU21623XXSP,2013-02-10 18:08:00,
2013-02-10 12:09:00,60.8,34.2,29.95,West,280,7.0,12.0,37,0.00,,,0.86,WUHU21623XXSP,2013-02-10 18:09:00,
2013-02-10 12:11:00,60.8,34.2,29.94,WNW,292,10.0,12.0,37,0.00,,,0.86,WUHU21623XXSP,2013-02-10 18:11:00,
2013-02-10 12:13:00,61.0,34.3,29.94,West,275,8.0,11.0,37,0.00,,,0.86,WUHU21623XXSP,2013-02-10 18:13:00,
2013-02-10 12:14:00,61.0,34.3,29.94,West,272,6.0,11.0,37,0.00,,,0.86,WUHU21623XXSP,2013-02-10 18:14:00,
2013-02-10 12:16:00,61.0,34.3,29.94,WSW,247,6.0,11.0,37,0.00,,,0.86,WUHU21623XXSP,2013-02-10 18:16:00,
2013-02-10 12:18:00,61.0,34.3,29.94,West,266,9.0,15.0,37,0.00,,,0.86,WUHU21623XXSP,2013-02-10 18:18:00,
2013-02-10 12:19:00,61.0,34.3,29.94,West,272,5.0,15.0,37,0.00,,,0.86,WUHU21623XXSP,2013-02-10 18:19:00,
2013-02-10 12:21:00,61.0,34.3,29.94,West,267,9.0,15.0,37,0.00,,,0.86,WUHU21623XXSP,2013-02-10 18:21:00,
2013-02-10 12:23:00,61.0,34.3,29.94,WNW,286,5.0,15.0,37,0.00,,,0.86,WUHU21623XXSP,2013-02-10 18:23:00,
2013-02-10 12:24:00,61.2,34.5,29.95,West,270,6.0,15.0,37,0.00,,,0.86,WUHU21623XXSP,2013-02-10 18:24:00,
2013-02-10 12:26:00,61.3,34.6,29.94,West,272,5.0,15.0,37,0.00,,,0.86,WUHU21623XXSP,2013-02-10 18:26:00,
2013-02-10 12:28:00,61.3,35.4,29.95,WNW,283,2.0,10.0,38,0.00,,,0.86,WUHU21623XXSP,2013-02-10 18:28:00,
2013-02-10 12:29:00,61.3,35.4,29.94,West,270,11.0,11.0,38,0.00,,,0.86,WUHU21623XXSP,2013-02-10 18:29:00,
2013-02-10 12:31:00,61.5,34.8,29.94,SW,225,6.0,11.0,37,0.00,,,0.86,WUHU21623XXSP,2013-02-10 18:31:00,
2013-02-10 12:33:00,61.5,34.8,29.94,WSW,251,5.0,11.0,37,0.00,,,0.86,WUHU21623XXSP,2013-02-10 18:33:00,
2013-02-10 12:34:00,61.7,35.7,29.94,WSW,247,10.0,16.0,38,0.00,,,0.86,WUHU21623XXSP,2013-02-10 18:34:00,
2013-02-10 12:36:00,61.7,35.7,29.94,West,269,5.0,16.0,38,0.00,,,0.86,WUHU21623XXSP,2013-02-10 18:36:00,
2013-02-10 12:38:00,61.7,35.0,29.93,WNW,299,4.0,16.0,37,0.00,,,0.86,WUHU21623XXSP,2013-02-10 18:38:00,
2013-02-10 12:39:00,61.7,35.0,29.93,West,263,8.0,16.0,37,0.00,,,0.86,WUHU21623XXSP,2013-02-10 18:39:00,
2013-02-10 12:41:00,61.9,35.1,29.93,West,270,9.0,16.0,37,0.00,,,0.86,WUHU21623XXSP,2013-02-10 18:41:00,
2013-02-10 12:43:00,61.9,35.1,29.93,West,270,7.0,16.0,37,0.00,,,0.86,WUHU21623XXSP,2013-02-10 18:43:00,
2013-02-10 12:44:00,61.9,35.1,29.93,WNW,283,6.0,16.0,37,0.00,,,0.86,WUHU21623XXSP,2013-02-10 18:44:00,
2013-02-10 12:46:00,61.9,34.4,29.93,WSW,247,10.0,16.0,36,0.00,,,0.86,WUHU21623XXSP,2013-02-10 18:46:00,
2013-02-10 12:48:00,61.9,34.4,29.93,WSW,247,9.0,16.0,36,0.00,,,0.86,WUHU21623XXSP,2013-02-10 18:48:00,
2013-02-10 12:49:00,62.1,35.3,29.93,West,261,7.0,13.0,37,0.00,,,0.86,WUHU21623XXSP,2013-02-10 18:49:00,
2013-02-10 12:52:00,62.1,34.6,29.93,WSW,246,11.0,16.0,36,0.00,,,0.86,WUHU21623XXSP,2013-02-10 18:52:00,
2013-02-10 12:53:00,62.2,35.5,29.93,WSW,247,10.0,16.0,37,0.00,,,0.86,WUHU21623XXSP,2013-02-10 18:53:00,
2013-02-10 12:54:00,62.2,35.5,29.93,WSW,244,8.0,16.0,37,0.00,,,0.86,WUHU21623XXSP,2013-02-10 18:54:00,
2013-02-10 12:55:00,62.2,35.5,29.93,WSW,249,7.0,16.0,37,0.00,,,0.86,WUHU21623XXSP,2013-02-10 18:55:00,
2013-02-10 12:57:00,62.2,34.7,29.93,West,261,6.0,16.0,36,0.00,,,0.86,WUHU21623XXSP,2013-02-10 18:57:00,
2013-02-10 12:59:00,62.2,34.7,29.93,West,265,8.0,16.0,36,0.00,,,0.86,WUHU21623XXSP,2013-02-10 18:59:00,
2013-02-10 13:00:00,62.2,34.7,29.93,WSW,254,9.0,16.0,36,0.00,,,0.86,WUHU21623XXSP,2013-02-10 19:00:00,
2013-02-10 13:02:00,62.4,35.6,29.93,West,266,3.0,15.0,37,0.00,,,0.86,WUHU21623XXSP,2013-02-10 19:02:00,
2013-02-10 13:04:00,62.4,35.6,29.92,NW,315,4.0,15.0,37,0.00,,,0.86,WUHU21623XXSP,2013-02-10 19:04:00,
2013-02-10 13:05:00,62.4,35.6,29.93,WSW,252,7.0,14.0,37,0.00,,,0.86,WUHU21623XXSP,2013-02-10 19:05:00,
2013-02-10 13:07:00,62.4,35.6,29.92,WSW,247,10.0,14.0,37,0.00,,,0.86,WUHU21623XXSP,2013-02-10 19:07:00,
2013-02-10 13:09:00,62.6,35.8,29.92,WSW,243,7.0,14.0,37,0.00,,,0.86,WUHU21623XXSP,2013-02-10 19:09:00,
2013-02-10 13:10:00,62.6,35.8,29.92,West,270,7.0,14.0,37,0.00,,,0.86,WUHU21623XXSP,2013-02-10 19:10:00,
2013-02-10 13:13:00,62.8,35.9,29.92,SW,225,5.0,14.0,37,0.00,,,0.86,WUHU21623XXSP,2013-02-10 19:13:00,
2013-02-10 13:14:00,63.0,36.1,29.92,WNW,292,10.0,14.0,37,0.00,,,0.86,WUHU21623XXSP,2013-02-10 19:14:00,
2013-02-10 13:15:00,63.0,36.1,29.92,WSW,247,15.0,15.0,37,0.00,,,0.86,WUHU21623XXSP,2013-02-10 19:15:00,
2013-02-10 13:18:00,63.1,34.8,29.92,West,261,9.0,16.0,35,0.00,,,0.86,WUHU21623XXSP,2013-02-10 19:18:00,
2013-02-10 13:19:00,63.1,34.8,29.92,WSW,253,8.0,16.0,35,0.00,,,0.86,WUHU21623XXSP,2013-02-10 19:19:00,
2013-02-10 13:20:00,63.1,35.5,29.92,West,270,9.0,16.0,36,0.00,,,0.86,WUHU21623XXSP,2013-02-10 19:20:00,
2013-02-10 13:24:00,63.3,35.0,29.92,West,270,6.0,16.0,35,0.00,,,0.86,WUHU21623XXSP,2013-02-10 19:24:00,
2013-02-10 13:25:00,63.3,34.3,29.92,West,270,12.0,16.0,34,0.00,,,0.86,WUHU21623XXSP,2013-02-10 19:25:00,
2013-02-10 13:29:00,63.5,34.4,29.92,WSW,247,12.0,15.0,34,0.00,,,0.86,WUHU21623XXSP,2013-02-10 19:29:00,
2013-02-10 13:30:00,63.3,34.3,29.92,WSW,251,6.0,15.0,34,0.00,,,0.86,WUHU21623XXSP,2013-02-10 19:30:00,
2013-02-10 13:34:00,63.3,34.3,29.92,WNW,292,8.0,15.0,34,0.00,,,0.86,WUHU21623XXSP,2013-02-10 19:34:00,
2013-02-10 13:35:00,63.5,34.4,29.92,WNW,286,6.0,15.0,34,0.00,,,0.86,WUHU21623XXSP,2013-02-10 19:35:00,
2013-02-10 13:39:00,63.5,34.4,29.91,WSW,247,6.0,11.0,34,0.00,,,0.86,WUHU21623XXSP,2013-02-10 19:39:00,
2013-02-10 13:40:00,63.5,34.4,29.91,WSW,247,9.0,11.0,34,0.00,,,0.86,WUHU21623XXSP,2013-02-10 19:40:00,
2013-02-10 13:41:00,63.5,34.4,29.91,West,276,5.0,11.0,34,0.00,,,0.86,WUHU21623XXSP,2013-02-10 19:41:00,
2013-02-10 13:44:00,63.5,34.4,29.91,WNW,292,10.0,11.0,34,0.00,,,0.86,WUHU21623XXSP,2013-02-10 19:44:00,
2013-02-10 13:46:00,63.5,34.4,29.91,WNW,292,8.0,10.0,34,0.00,,,0.86,WUHU21623XXSP,2013-02-10 19:46:00,
2013-02-10 13:49:00,63.7,33.9,29.91,West,277,6.0,10.0,33,0.00,,,0.86,WUHU21623XXSP,2013-02-10 19:49:00,
2013-02-10 13:51:00,63.7,33.9,29.91,West,270,10.0,10.0,33,0.00,,,0.86,WUHU21623XXSP,2013-02-10 19:51:00,
2013-02-10 13:54:00,63.7,33.9,29.91,West,266,8.0,13.0,33,0.00,,,0.86,WUHU21623XXSP,2013-02-10 19:54:00,
2013-02-10 13:56:00,63.7,33.9,29.91,WNW,292,12.0,13.0,33,0.00,,,0.86,WUHU21623XXSP,2013-02-10 19:56:00,
2013-02-10 13:57:00,63.7,33.2,29.91,West,277,8.0,13.0,32,0.00,,,0.86,WUHU21623XXSP,2013-02-10 19:57:00,
2013-02-10 13:59:00,64.0,33.5,29.91,West,273,7.0,13.0,32,0.00,,,0.86,WUHU21623XXSP,2013-02-10 19:59:00,
2013-02-10 14:01:00,63.9,33.3,29.91,West,277,5.0,13.0,32,0.00,,,0.86,WUHU21623XXSP,2013-02-10 20:01:00,
2013-02-10 14:02:00,64.0,33.5,29.91,WNW,292,8.0,13.0,32,0.00,,,0.86,WUHU21623XXSP,2013-02-10 20:02:00,
2013-02-10 14:04:00,64.0,33.5,29.91,WNW,292,5.0,12.0,32,0.00,,,0.86,WUHU21623XXSP,2013-02-10 20:04:00,
2013-02-10 14:06:00,64.0,34.2,29.91,West,260,5.0,10.0,33,0.00,,,0.86,WUHU21623XXSP,2013-02-10 20:06:00,
2013-02-10 14:07:00,64.0,34.2,29.91,WSW,253,4.0,10.0,33,0.00,,,0.86,WUHU21623XXSP,2013-02-10 20:07:00,
2013-02-10 14:10:00,64.0,34.2,29.91,West,275,5.0,10.0,33,0.00,,,0.86,WUHU21623XXSP,2013-02-10 20:10:00,
2013-02-10 14:11:00,64.0,34.2,29.91,West,270,4.0,10.0,33,0.00,,,0.86,WUHU21623XXSP,2013-02-10 20:11:00,
2013-02-10 14:12:00,64.0,34.2,29.91,WNW,292,4.0,10.0,33,0.00,,,0.86,WUHU21623XXSP,2013-02-10 20:12:00,
2013-02-10 14:15:00,64.0,34.2,29.91,WNW,293,3.0,9.0,33,0.00,,,0.86,WUHU21623XXSP,2013-02-10 20:15:00,
2013-02-10 14:16:00,64.2,34.4,29.91,West,270,4.0,9.0,33,0.00,,,0.86,WUHU21623XXSP,2013-02-10 20:16:00,
2013-02-10 14:17:00,64.2,34.4,29.91,WNW,283,3.0,9.0,33,0.00,,,0.86,WUHU21623XXSP,2013-02-10 20:17:00,
2013-02-10 14:21:00,64.2,34.4,29.91,West,269,6.0,10.0,33,0.00,,,0.86,WUHU21623XXSP,2013-02-10 20:21:00,
2013-02-10 14:22:00,64.2,33.6,29.91,WNW,292,6.0,10.0,32,0.00,,,0.86,WUHU21623XXSP,2013-02-10 20:22:00,
2013-02-10 14:26:00,64.6,34.7,29.92,West,272,4.0,10.0,33,0.00,,,0.86,WUHU21623XXSP,2013-02-10 20:26:00,
2013-02-10 14:27:00,64.6,34.0,29.92,West,273,4.0,10.0,32,0.00,,,0.86,WUHU21623XXSP,2013-02-10 20:27:00,
2013-02-10 14:31:00,64.6,34.7,29.92,West,259,6.0,10.0,33,0.00,,,0.86,WUHU21623XXSP,2013-02-10 20:31:00,
2013-02-10 14:32:00,64.6,34.7,29.92,West,270,7.0,10.0,33,0.00,,,0.86,WUHU21623XXSP,2013-02-10 20:32:00,
2013-02-10 14:36:00,64.6,34.7,29.92,WSW,247,5.0,10.0,33,0.00,,,0.86,WUHU21623XXSP,2013-02-10 20:36:00,
2013-02-10 14:37:00,64.6,34.7,29.92,West,274,4.0,10.0,33,0.00,,,0.86,WUHU21623XXSP,2013-02-10 20:37:00,
2013-02-10 14:41:00,64.6,34.7,29.91,SW,225,4.0,9.0,33,0.00,,,0.86,WUHU21623XXSP,2013-02-10 20:41:00,
2013-02-10 14:42:00,64.6,34.7,29.91,WSW,247,7.0,9.0,33,0.00,,,0.86,WUHU21623XXSP,2013-02-10 20:42:00,
2013-02-10 14:43:00,64.6,34.7,29.91,West,270,6.0,9.0,33,0.00,,,0.86,WUHU21623XXSP,2013-02-10 20:43:00,
2013-02-10 14:46:00,64.6,34.0,29.92,WSW,247,10.0,11.0,32,0.00,,,0.86,WUHU21623XXSP,2013-02-10 20:46:00,
2013-02-10 14:47:00,64.6,34.0,29.92,WNW,292,8.0,11.0,32,0.00,,,0.86,WUHU21623XXSP,2013-02-10 20:47:00,
2013-02-10 14:48:00,64.6,34.0,29.92,West,277,5.0,11.0,32,0.00,,,0.86,WUHU21623XXSP,2013-02-10 20:48:00,
2013-02-10 14:51:00,64.8,34.1,29.92,SW,235,6.0,11.0,32,0.00,,,0.86,WUHU21623XXSP,2013-02-10 20:51:00,
2013-02-10 14:52:00,64.8,34.1,29.92,WSW,241,6.0,11.0,32,0.00,,,0.86,WUHU21623XXSP,2013-02-10 20:52:00,
2013-02-10 14:53:00,64.8,34.1,29.92,SW,225,7.0,11.0,32,0.00,,,0.86,WUHU21623XXSP,2013-02-10 20:53:00,
2013-02-10 14:54:00,64.8,34.1,29.92,WSW,245,6.0,11.0,32,0.00,,,0.86,WUHU21623XXSP,2013-02-10 20:54:00,
2013-02-10 14:56:00,64.8,34.1,29.91,WSW,253,5.0,11.0,32,0.00,,,0.86,WUHU21623XXSP,2013-02-10 20:56:00,
2013-02-10 14:58:00,64.9,34.3,29.91,WSW,247,7.0,11.0,32,0.00,,,0.86,WUHU21623XXSP,2013-02-10 20:58:00,
2013-02-10 14:59:00,64.9,34.3,29.91,West,270,5.0,11.0,32,0.00,,,0.86,WUHU21623XXSP,2013-02-10 20:59:00,
2013-02-10 15:01:00,64.9,34.3,29.91,West,260,6.0,11.0,32,0.00,,,0.86,WUHU21623XXSP,2013-02-10 21:01:00,
2013-02-10 15:03:00,64.9,34.3,29.91,WSW,256,5.0,11.0,32,0.00,,,0.86,WUHU21623XXSP,2013-02-10 21:03:00,
2013-02-10 15:04:00,64.9,34.3,29.92,WSW,257,4.0,10.0,32,0.00,,,0.86,WUHU21623XXSP,2013-02-10 21:04:00,
2013-02-10 15:06:00,65.1,34.4,29.92,WSW,256,5.0,9.0,32,0.00,,,0.86,WUHU21623XXSP,2013-02-10 21:06:00,
2013-02-10 15:08:00,65.1,34.4,29.91,West,270,7.0,9.0,32,0.00,,,0.86,WUHU21623XXSP,2013-02-10 21:08:00,
2013-02-10 15:09:00,65.1,34.4,29.92,NW,315,9.0,9.0,32,0.00,,,0.86,WUHU21623XXSP,2013-02-10 21:09:00,
2013-02-10 15:12:00,65.1,33.7,29.91,West,270,6.0,9.0,31,0.00,,,0.86,WUHU21623XXSP,2013-02-10 21:12:00,
2013-02-10 15:13:00,65.1,33.7,29.91,West,270,5.0,9.0,31,0.00,,,0.86,WUHU21623XXSP,2013-02-10 21:13:00,
2013-02-10 15:15:00,65.1,33.7,29.91,WNW,303,6.0,9.0,31,0.00,,,0.86,WUHU21623XXSP,2013-02-10 21:15:00,
2013-02-10 15:18:00,65.3,33.2,29.92,West,276,4.0,9.0,30,0.00,,,0.86,WUHU21623XXSP,2013-02-10 21:18:00,
2013-02-10 15:20:00,65.3,33.2,29.92,West,270,10.0,10.0,30,0.00,,,0.86,WUHU21623XXSP,2013-02-10 21:20:00,
2013-02-10 15:23:00,65.3,33.2,29.93,West,278,7.0,11.0,30,0.00,,,0.86,WUHU21623XXSP,2013-02-10 21:23:00,
2013-02-10 15:25:00,65.5,33.3,29.93,West,270,5.0,11.0,30,0.00,,,0.86,WUHU21623XXSP,2013-02-10 21:25:00,
2013-02-10 15:28:00,65.5,33.3,29.93,West,276,6.0,11.0,30,0.00,,,0.86,WUHU21623XXSP,2013-02-10 21:28:00,
2013-02-10 15:30:00,65.5,33.3,29.93,WNW,283,6.0,11.0,30,0.00,,,0.86,WUHU21623XXSP,2013-02-10 21:30:00,
2013-02-10 15:33:00,65.5,33.3,29.92,WNW,294,4.0,9.0,30,0.00,,,0.86,WUHU21623XXSP,2013-02-10 21:33:00,
2013-02-10 15:35:00,65.5,33.3,29.92,WNW,292,7.0,13.0,30,0.00,,,0.86,WUHU21623XXSP,2013-02-10 21:35:00,
2013-02-10 15:38:00,65.5,33.3,29.92,West,270,5.0,13.0,30,0.00,,,0.86,WUHU21623XXSP,2013-02-10 21:38:00,
2013-02-10 15:40:00,65.5,33.3,29.92,West,270,8.0,13.0,30,0.00,,,0.86,WUHU21623XXSP,2013-02-10 21:40:00,
2013-02-10 15:43:00,65.5,33.3,29.92,West,270,4.0,13.0,30,0.00,,,0.86,WUHU21623XXSP,2013-02-10 21:43:00,
2013-02-10 15:44:00,65.5,33.3,29.92,NW,315,3.0,13.0,30,0.00,,,0.86,WUHU21623XXSP,2013-02-10 21:44:00,
2013-02-10 15:45:00,65.5,33.3,29.92,WNW,285,4.0,9.0,30,0.00,,,0.86,WUHU21623XXSP,2013-02-10 21:45:00,
2013-02-10 15:48:00,65.5,33.3,29.92,WNW,295,5.0,9.0,30,0.00,,,0.86,WUHU21623XXSP,2013-02-10 21:48:00,
2013-02-10 15:49:00,65.5,33.3,29.92,NW,315,6.0,9.0,30,0.00,,,0.86,WUHU21623XXSP,2013-02-10 21:49:00,
2013-02-10 15:51:00,65.5,33.3,29.92,West,270,8.0,10.0,30,0.00,,,0.86,WUHU21623XXSP,2013-02-10 21:51:00,
2013-02-10 15:53:00,65.5,33.3,29.93,WNW,284,5.0,10.0,30,0.00,,,0.86,WUHU21623XXSP,2013-02-10 21:53:00,
2013-02-10 15:54:00,65.5,33.3,29.93,WNW,290,5.0,10.0,30,0.00,,,0.86,WUHU21623XXSP,2013-02-10 21:54:00,
2013-02-10 15:56:00,65.5,33.3,29.93,WNW,299,6.0,10.0,30,0.00,,,0.86,WUHU21623XXSP,2013-02-10 21:56:00,
2013-02-10 15:58:00,65.5,33.3,29.93,NW,315,5.0,10.0,30,0.00,,,0.86,WUHU21623XXSP,2013-02-10 21:58:00,
2013-02-10 15:59:00,65.5,33.3,29.93,WNW,291,4.0,10.0,30,0.00,,,0.86,WUHU21623XXSP,2013-02-10 21:59:00,
2013-02-10 16:01:00,65.3,33.2,29.93,WNW,292,5.0,9.0,30,0.00,,,0.86,WUHU21623XXSP,2013-02-10 22:01:00,
2013-02-10 16:03:00,65.5,33.3,29.93,WNW,292,7.0,9.0,30,0.00,,,0.86,WUHU21623XXSP,2013-02-10 22:03:00,
2013-02-10 16:04:00,65.3,33.2,29.93,WNW,292,8.0,9.0,30,0.00,,,0.86,WUHU21623XXSP,2013-02-10 22:04:00,
2013-02-10 16:06:00,65.5,33.3,29.93,West,270,5.0,8.0,30,0.00,,,0.86,WUHU21623XXSP,2013-02-10 22:06:00,
2013-02-10 16:09:00,65.3,33.2,29.93,WNW,290,3.0,8.0,30,0.00,,,0.86,WUHU21623XXSP,2013-02-10 22:09:00,
2013-02-10 16:11:00,65.3,33.9,29.93,WSW,255,3.0,8.0,31,0.00,,,0.86,WUHU21623XXSP,2013-02-10 22:11:00,
2013-02-10 16:14:00,65.3,33.9,29.93,NW,308,2.0,8.0,31,0.00,,,0.86,WUHU21623XXSP,2013-02-10 22:14:00,
2013-02-10 16:16:00,65.3,33.9,29.93,West,262,3.0,7.0,31,0.00,,,0.86,WUHU21623XXSP,2013-02-10 22:16:00,
2013-02-10 16:19:00,65.3,34.6,29.93,West,277,3.0,7.0,32,0.00,,,0.86,WUHU21623XXSP,2013-02-10 22:19:00,
2013-02-10 16:21:00,65.5,34.1,29.93,West,270,4.0,7.0,31,0.00,,,0.86,WUHU21623XXSP,2013-02-10 22:21:00,
2013-02-10 16:24:00,65.3,33.9,29.93,WNW,292,3.0,7.0,31,0.00,,,0.86,WUHU21623XXSP,2013-02-10 22:24:00,
2013-02-10 16:25:00,65.5,34.1,29.93,North,0,3.0,7.0,31,0.00,,,0.86,WUHU21623XXSP,2013-02-10 22:25:00,
2013-02-10 16:26:00,65.5,34.8,29.93,West,270,3.0,6.0,32,0.00,,,0.86,WUHU21623XXSP,2013-02-10 22:26:00,
2013-02-10 16:29:00,65.5,34.1,29.93,West,270,5.0,6.0,31,0.00,,,0.86,WUHU21623XXSP,2013-02-10 22:29:00,
2013-02-10 16:30:00,65.5,34.1,29.93,WNW,290,3.0,6.0,31,0.00,,,0.86,WUHU21623XXSP,2013-02-10 22:30:00,
2013-02-10 16:31:00,65.5,34.1,29.94,WNW,290,3.0,5.0,31,0.00,,,0.86,WUHU21623XXSP,2013-02-10 22:31:00,
2013-02-10 16:34:00,65.5,34.8,29.94,WSW,247,5.0,5.0,32,0.00,,,0.86,WUHU21623XXSP,2013-02-10 22:34:00,
2013-02-10 16:35:00,65.5,34.1,29.94,WSW,256,3.0,5.0,31,0.00,,,0.86,WUHU21623XXSP,2013-02-10 22:35:00,
2013-02-10 16:36:00,65.5,34.8,29.93,West,264,3.0,5.0,32,0.00,,,0.86,WUHU21623XXSP,2013-02-10 22:36:00,
2013-02-10 16:39:00,65.5,34.8,29.93,West,279,2.0,5.0,32,0.00,,,0.86,WUHU21623XXSP,2013-02-10 22:39:00,
2013-02-10 16:40:00,65.5,34.8,29.93,West,270,4.0,5.0,32,0.00,,,0.86,WUHU21623XXSP,2013-02-10 22:40:00,
2013-02-10 16:42:00,65.5,34.8,29.94,SSW,202,7.0,7.0,32,0.00,,,0.86,WUHU21623XXSP,2013-02-10 22:42:00,
2013-02-10 16:44:00,65.5,34.8,29.94,WNW,283,3.0,7.0,32,0.00,,,0.86,WUHU21623XXSP,2013-02-10 22:44:00,
2013-02-10 16:45:00,65.5,34.8,29.94,WNW,283,3.0,7.0,32,0.00,,,0.86,WUHU21623XXSP,2013-02-10 22:45:00,
2013-02-10 16:47:00,65.5,34.8,29.94,West,261,5.0,8.0,32,0.00,,,0.86,WUHU21623XXSP,2013-02-10 22:47:00,
2013-02-10 16:49:00,65.5,34.8,29.94,SW,225,4.0,8.0,32,0.00,,,0.86,WUHU21623XXSP,2013-02-10 22:49:00,
2013-02-10 16:50:00,65.5,34.8,29.94,West,270,4.0,8.0,32,0.00,,,0.86,WUHU21623XXSP,2013-02-10 22:50:00,
2013-02-10 16:52:00,65.5,34.8,29.94,SW,225,6.0,8.0,32,0.00,,,0.86,WUHU21623XXSP,2013-02-10 22:52:00,
2013-02-10 16:55:00,65.5,34.8,29.94,WSW,247,5.0,9.0,32,0.00,,,0.86,WUHU21623XXSP,2013-02-10 22:55:00,
2013-02-10 16:57:00,65.5,34.8,29.94,West,270,2.0,9.0,32,0.00,,,0.86,WUHU21623XXSP,2013-02-10 22:57:00,
2013-02-10 17:00:00,65.5,34.8,29.94,WNW,292,2.0,9.0,32,0.00,,,0.86,WUHU21623XXSP,2013-02-10 23:00:00,
2013-02-10 17:01:00,65.7,34.9,29.94,West,270,2.0,9.0,32,0.00,,,0.86,WUHU21623XXSP,2013-02-10 23:01:00,
2013-02-10 17:02:00,65.7,34.9,29.94,WSW,249,3.0,9.0,32,0.00,,,0.86,WUHU21623XXSP,2013-02-10 23:02:00,
2013-02-10 17:05:00,65.7,34.9,29.94,West,279,1.0,8.0,32,0.00,,,0.86,WUHU21623XXSP,2013-02-10 23:05:00,
2013-02-10 17:06:00,65.7,34.9,29.94,West,270,4.0,5.0,32,0.00,,,0.86,WUHU21623XXSP,2013-02-10 23:06:00,
2013-02-10 17:08:00,65.5,34.8,29.94,WNW,292,2.0,4.0,32,0.00,,,0.86,WUHU21623XXSP,2013-02-10 23:08:00,
2013-02-10 17:10:00,65.5,34.8,29.95,WNW,291,3.0,6.0,32,0.00,,,0.86,WUHU21623XXSP,2013-02-10 23:10:00,
2013-02-10 17:11:00,65.7,34.9,29.95,WNW,292,4.0,6.0,32,0.00,,,0.86,WUHU21623XXSP,2013-02-10 23:11:00,
2013-02-10 17:13:00,65.5,34.8,29.95,West,270,6.0,6.0,32,0.00,,,0.86,WUHU21623XXSP,2013-02-10 23:13:00,
2013-02-10 17:15:00,65.5,34.8,29.95,West,262,3.0,8.0,32,0.00,,,0.86,WUHU21623XXSP,2013-02-10 23:15:00,
2013-02-10 17:16:00,65.5,34.8,29.95,WNW,292,3.0,8.0,32,0.00,,,0.86,WUHU21623XXSP,2013-02-10 23:16:00,
2013-02-10 17:18:00,65.5,34.8,29.95,West,270,2.0,8.0,32,0.00,,,0.86,WUHU21623XXSP,2013-02-10 23:18:00,
2013-02-10 17:20:00,65.5,34.8,29.95,NW,315,2.0,8.0,32,0.00,,,0.86,WUHU21623XXSP,2013-02-10 23:20:00,
2013-02-10 17:21:00,65.5,34.8,29.95,West,276,3.0,8.0,32,0.00,,,0.86,WUHU21623XXSP,2013-02-10 23:21:00,
2013-02-10 17:24:00,65.5,34.8,29.95,West,270,2.0,5.0,32,0.00,,,0.86,WUHU21623XXSP,2013-02-10 23:24:00,
2013-02-10 17:26:00,65.5,34.8,29.95,WSW,249,4.0,6.0,32,0.00,,,0.86,WUHU21623XXSP,2013-02-10 23:26:00,
2013-02-10 17:29:00,65.5,35.5,29.95,WSW,244,4.0,7.0,33,0.00,,,0.86,WUHU21623XXSP,2013-02-10 23:29:00,
2013-02-10 17:31:00,65.5,35.5,29.95,SW,220,3.0,7.0,33,0.00,,,0.86,WUHU21623XXSP,2013-02-10 23:31:00,
2013-02-10 17:34:00,65.5,35.5,29.96,SSW,202,5.0,7.0,33,0.00,,,0.86,WUHU21623XXSP,2013-02-10 23:34:00,
2013-02-10 17:36:00,65.5,35.5,29.96,SW,215,2.0,7.0,33,0.00,,,0.86,WUHU21623XXSP,2013-02-10 23:36:00,
2013-02-10 17:37:00,65.5,35.5,29.96,SW,214,3.0,6.0,33,0.00,,,0.86,WUHU21623XXSP,2013-02-10 23:37:00,
2013-02-10 17:39:00,65.5,35.5,29.96,SSW,212,2.0,6.0,33,0.00,,,0.86,WUHU21623XXSP,2013-02-10 23:39:00,
2013-02-10 17:41:00,65.5,35.5,29.96,SW,236,3.0,6.0,33,0.00,,,0.86,WUHU21623XXSP,2013-02-10 23:41:00,
2013-02-10 17:42:00,65.5,35.5,29.96,SW,225,2.0,6.0,33,0.00,,,0.86,WUHU21623XXSP,2013-02-10 23:42:00,
2013-02-10 17:44:00,65.5,36.2,29.96,WSW,247,2.0,5.0,34,0.00,,,0.86,WUHU21623XXSP,2013-02-10 23:44:00,
2013-02-10 17:46:00,65.5,36.2,29.96,WSW,242,3.0,5.0,34,0.00,,,0.86,WUHU21623XXSP,2013-02-10 23:46:00,
2013-02-10 17:47:00,65.3,36.0,29.96,WSW,245,3.0,5.0,34,0.00,,,0.86,WUHU21623XXSP,2013-02-10 23:47:00,
2013-02-10 17:49:00,65.5,36.2,29.96,WSW,238,4.0,6.0,34,0.00,,,0.86,WUHU21623XXSP,2013-02-10 23:49:00,
2013-02-10 17:51:00,65.5,36.2,29.96,WSW,244,3.0,6.0,34,0.00,,,0.86,WUHU21623XXSP,2013-02-10 23:51:00,
2013-02-10 17:52:00,65.3,36.0,29.96,SW,225,3.0,6.0,34,0.00,,,0.86,WUHU21623XXSP,2013-02-10 23:52:00,
2013-02-10 17:55:00,65.5,36.2,29.96,SW,225,3.0,6.0,34,0.00,,,0.86,WUHU21623XXSP,2013-02-10 23:55:00,
2013-02-10 17:56:00,65.5,36.2,29.96,SW,221,2.0,6.0,34,0.00,,,0.86,WUHU21623XXSP,2013-02-10 23:56:00,
2013-02-10 17:57:00,65.5,36.2,29.96,SSW,208,1.0,6.0,34,0.00,,,0.86,WUHU21623XXSP,2013-02-10 23:57:00,
2013-02-10 18:00:00,65.3,36.0,29.96,South,191,2.0,5.0,34,0.00,,,0.86,WUHU21623XXSP,2013-02-11 00:00:00,
2013-02-10 18:01:00,65.5,36.2,29.96,South,190,2.0,5.0,34,0.00,,,0.86,WUHU21623XXSP,2013-02-11 00:01:00,
2013-02-10 18:02:00,65.5,36.2,29.96,SSW,202,2.0,5.0,34,0.00,,,0.86,WUHU21623XXSP,2013-02-11 00:02:00,
2013-02-10 18:05:00,65.5,36.2,29.96,SW,225,1.0,2.0,34,0.00,,,0.86,WUHU21623XXSP,2013-02-11 00:05:00,
2013-02-10 18:06:00,65.5,36.2,29.96,SSW,202,1.0,2.0,34,0.00,,,0.86,WUHU21623XXSP,2013-02-11 00:06:00,
2013-02-10 18:07:00,65.3,36.0,29.97,SW,225,2.0,2.0,34,0.00,,,0.86,WUHU21623XXSP,2013-02-11 00:07:00,
2013-02-10 18:08:00,65.5,36.9,29.97,SW,216,1.0,2.0,35,0.00,,,0.86,WUHU21623XXSP,2013-02-11 00:08:00,
2013-02-10 18:10:00,65.3,36.8,29.96,SSW,202,1.0,2.0,35,0.00,,,0.86,WUHU21623XXSP,2013-02-11 00:10:00,
2013-02-10 18:11:00,65.5,36.9,29.97,South,180,0.0,2.0,35,0.00,,,0.86,WUHU21623XXSP,2013-02-11 00:11:00,
2013-02-10 18:12:00,65.3,36.8,29.97,SSW,202,2.0,2.0,35,0.00,,,0.86,WUHU21623XXSP,2013-02-11 00:12:00,
2013-02-10 18:13:00,65.3,36.8,29.97,SSW,202,2.0,2.0,35,0.00,,,0.86,WUHU21623XXSP,2013-02-11 00:13:00,
2013-02-10 18:15:00,65.3,36.8,29.97,SSW,202,0.0,2.0,35,0.00,,,0.86,WUHU21623XXSP,2013-02-11 00:15:00,
2013-02-10 18:16:00,65.3,36.8,29.97,SSW,202,1.0,2.0,35,0.00,,,0.86,WUHU21623XXSP,2013-02-11 00:16:00,
2013-02-10 18:17:00,65.3,36.8,29.97,SSW,202,1.0,2.0,35,0.00,,,0.86,WUHU21623XXSP,2013-02-11 00:17:00,
2013-02-10 18:18:00,65.3,36.8,29.97,SSW,202,1.0,2.0,35,0.00,,,0.86,WUHU21623XXSP,2013-02-11 00:18:00,
2013-02-10 18:20:00,65.1,36.6,29.97,SSW,202,2.0,2.0,35,0.00,,,0.86,WUHU21623XXSP,2013-02-11 00:20:00,
2013-02-10 18:21:00,65.1,36.6,29.97,South,180,2.0,2.0,35,0.00,,,0.86,WUHU21623XXSP,2013-02-11 00:21:00,
2013-02-10 18:23:00,65.1,36.6,29.97,South,180,2.0,2.0,35,0.00,,,0.86,WUHU21623XXSP,2013-02-11 00:23:00,
2013-02-10 18:25:00,65.1,37.3,29.97,South,180,0.0,2.0,36,0.00,,,0.86,WUHU21623XXSP,2013-02-11 00:25:00,
2013-02-10 18:26:00,65.1,36.6,29.97,South,180,0.0,2.0,35,0.00,,,0.86,WUHU21623XXSP,2013-02-11 00:26:00,
2013-02-10 18:28:00,64.9,37.2,29.97,South,180,2.0,2.0,36,0.00,,,0.86,WUHU21623XXSP,2013-02-11 00:28:00,
2013-02-10 18:31:00,64.9,37.2,29.97,SSW,202,1.0,3.0,36,0.00,,,0.86,WUHU21623XXSP,2013-02-11 00:31:00,
2013-02-10 18:33:00,64.9,37.2,29.97,South,180,0.0,3.0,36,0.00,,,0.86,WUHU21623XXSP,2013-02-11 00:33:00,
2013-02-10 18:36:00,64.8,37.0,29.97,South,180,0.0,3.0,36,0.00,,,0.86,WUHU21623XXSP,2013-02-11 00:36:00,
2013-02-10 18:38:00,64.8,37.0,29.98,SSE,157,0.0,3.0,36,0.00,,,0.86,WUHU21623XXSP,2013-02-11 00:38:00,
2013-02-10 18:41:00,64.8,37.0,29.98,SSE,157,2.0,2.0,36,0.00,,,0.86,WUHU21623XXSP,2013-02-11 00:41:00,
2013-02-10 18:43:00,64.8,37.0,29.98,SSE,157,2.0,2.0,36,0.00,,,0.86,WUHU21623XXSP,2013-02-11 00:43:00,
2013-02-10 18:46:00,64.6,36.8,29.98,South,180,0.0,2.0,36,0.00,,,0.86,WUHU21623XXSP,2013-02-11 00:46:00,
2013-02-10 18:47:00,64.6,36.8,29.98,South,180,0.0,2.0,36,0.00,,,0.86,WUHU21623XXSP,2013-02-11 00:47:00,
2013-02-10 18:48:00,64.6,36.8,29.98,South,180,0.0,2.0,36,0.00,,,0.86,WUHU21623XXSP,2013-02-11 00:48:00,
2013-02-10 18:52:00,64.6,37.6,29.98,South,180,0.0,0.0,37,0.00,,,0.86,WUHU21623XXSP,2013-02-11 00:52:00,
2013-02-10 18:53:00,64.6,37.6,29.98,South,180,0.0,0.0,37,0.00,,,0.86,WUHU21623XXSP,2013-02-11 00:53:00,
2013-02-10 18:57:00,64.6,37.6,29.99,South,180,0.0,0.0,37,0.00,,,0.86,WUHU21623XXSP,2013-02-11 00:57:00,
2013-02-10 18:58:00,64.6,37.6,29.99,SSE,157,0.0,0.0,37,0.00,,,0.86,WUHU21623XXSP,2013-02-11 00:58:00,
2013-02-10 18:59:00,64.6,37.6,29.99,South,180,0.0,0.0,37,0.00,,,0.86,WUHU21623XXSP,2013-02-11 00:59:00,
2013-02-10 19:02:00,64.6,37.6,29.99,South,180,0.0,0.0,37,0.00,,,0.86,WUHU21623XXSP,2013-02-11 01:02:00,
2013-02-10 19:03:00,64.4,37.4,29.99,South,180,0.0,0.0,37,0.00,,,0.86,WUHU21623XXSP,2013-02-11 01:03:00,
2013-02-10 19:04:00,64.4,37.4,29.99,South,180,0.0,0.0,37,0.00,,,0.86,WUHU21623XXSP,2013-02-11 01:04:00,
2013-02-10 19:07:00,64.2,37.2,29.99,South,180,0.0,0.0,37,0.00,,,0.86,WUHU21623XXSP,2013-02-11 01:07:00,
2013-02-10 19:09:00,64.2,37.2,29.99,South,180,4.0,4.0,37,0.00,,,0.86,WUHU21623XXSP,2013-02-11 01:09:00,
2013-02-10 19:12:00,64.2,37.2,30.00,SSW,202,2.0,4.0,37,0.00,,,0.86,WUHU21623XXSP,2013-02-11 01:12:00,
2013-02-10 19:14:00,64.2,37.2,29.99,SSW,202,2.0,4.0,37,0.00,,,0.86,WUHU21623XXSP,2013-02-11 01:14:00,
2013-02-10 19:17:00,64.2,37.2,30.00,SSW,203,2.0,4.0,37,0.00,,,0.86,WUHU21623XXSP,2013-02-11 01:17:00,
2013-02-10 19:18:00,64.2,37.2,30.00,SSW,203,2.0,4.0,37,0.00,,,0.86,WUHU21623XXSP,2013-02-11 01:18:00,
2013-02-10 19:19:00,64.2,37.2,30.00,SSW,202,2.0,2.0,37,0.00,,,0.86,WUHU21623XXSP,2013-02-11 01:19:00,
2013-02-10 19:22:00,64.0,37.1,30.00,South,180,0.0,2.0,37,0.00,,,0.86,WUHU21623XXSP,2013-02-11 01:22:00,
2013-02-10 19:23:00,64.0,37.1,30.00,SSW,202,1.0,2.0,37,0.00,,,0.86,WUHU21623XXSP,2013-02-11 01:23:00,
2013-02-10 19:24:00,64.0,37.1,30.00,SSW,202,1.0,2.0,37,0.00,,,0.86,WUHU21623XXSP,2013-02-11 01:24:00,
2013-02-10 19:25:00,64.0,37.1,30.00,South,180,0.0,2.0,37,0.00,,,0.86,WUHU21623XXSP,2013-02-11 01:25:00,
2013-02-10 19:27:00,64.0,37.1,30.00,South,180,1.0,2.0,37,0.00,,,0.86,WUHU21623XXSP,2013-02-11 01:27:00,
2013-02-10 19:28:00,64.0,37.1,30.00,SSW,202,0.0,1.0,37,0.00,,,0.86,WUHU21623XXSP,2013-02-11 01:28:00,
2013-02-10 19:29:00,64.0,37.1,30.00,South,180,0.0,1.0,37,0.00,,,0.86,WUHU21623XXSP,2013-02-11 01:29:00,
2013-02-10 19:30:00,64.0,37.1,30.00,South,180,0.0,1.0,37,0.00,,,0.86,WUHU21623XXSP,2013-02-11 01:30:00,
2013-02-10 19:32:00,63.9,36.9,30.01,South,180,0.0,1.0,37,0.00,,,0.86,WUHU21623XXSP,2013-02-11 01:32:00,
2013-02-10 19:33:00,63.9,36.9,30.01,South,180,0.0,1.0,37,0.00,,,0.86,WUHU21623XXSP,2013-02-11 01:33:00,
2013-02-10 19:34:00,63.7,36.8,30.01,SSW,202,2.0,2.0,37,0.00,,,0.86,WUHU21623XXSP,2013-02-11 01:34:00,
2013-02-10 19:35:00,63.7,36.8,30.01,SSW,202,1.0,2.0,37,0.00,,,0.86,WUHU21623XXSP,2013-02-11 01:35:00,
2013-02-10 19:37:00,63.7,36.8,30.01,SSW,202,0.0,2.0,37,0.00,,,0.86,WUHU21623XXSP,2013-02-11 01:37:00,
2013-02-10 19:38:00,63.7,36.8,30.01,SSW,202,3.0,3.0,37,0.00,,,0.86,WUHU21623XXSP,2013-02-11 01:38:00,
2013-02-10 19:39:00,63.7,36.8,30.01,SSW,202,2.0,3.0,37,0.00,,,0.86,WUHU21623XXSP,2013-02-11 01:39:00,
2013-02-10 19:40:00,63.7,36.8,30.01,SSW,202,2.0,3.0,37,0.00,,,0.86,WUHU21623XXSP,2013-02-11 01:40:00,
2013-02-10 19:42:00,63.7,36.8,30.02,South,189,1.0,3.0,37,0.00,,,0.86,WUHU21623XXSP,2013-02-11 01:42:00,
2013-02-10 19:43:00,63.7,36.8,30.02,SSW,202,2.0,3.0,37,0.00,,,0.86,WUHU21623XXSP,2013-02-11 01:43:00,
2013-02-10 19:45:00,63.7,36.8,30.02,SSW,202,2.0,3.0,37,0.00,,,0.86,WUHU21623XXSP,2013-02-11 01:45:00,
2013-02-10 19:47:00,63.7,37.5,30.02,South,190,2.0,3.0,38,0.00,,,0.86,WUHU21623XXSP,2013-02-11 01:47:00,
2013-02-10 19:49:00,63.5,37.3,30.02,South,180,2.0,2.0,38,0.00,,,0.86,WUHU21623XXSP,2013-02-11 01:49:00,
2013-02-10 19:50:00,63.5,37.3,30.02,South,184,2.0,2.0,38,0.00,,,0.86,WUHU21623XXSP,2013-02-11 01:50:00,
2013-02-10 19:52:00,63.5,37.3,30.02,South,186,2.0,3.0,38,0.00,,,0.86,WUHU21623XXSP,2013-02-11 01:52:00,
2013-02-10 19:54:00,63.5,37.3,30.02,SSW,202,2.0,3.0,38,0.00,,,0.86,WUHU21623XXSP,2013-02-11 01:54:00,
2013-02-10 19:55:00,63.5,37.3,30.02,SW,214,2.0,4.0,38,0.00,,,0.86,WUHU21623XXSP,2013-02-11 01:55:00,
2013-02-10 19:56:00,63.5,37.3,30.02,SW,221,2.0,4.0,38,0.00,,,0.86,WUHU21623XXSP,2013-02-11 01:56:00,
2013-02-10 19:57:00,63.5,37.3,30.02,SSW,202,2.0,4.0,38,0.00,,,0.86,WUHU21623XXSP,2013-02-11 01:57:00,
2013-02-10 19:59:00,63.3,37.1,30.02,SSW,202,0.0,4.0,38,0.00,,,0.86,WUHU21623XXSP,2013-02-11 01:59:00,
2013-02-10 20:00:00,63.5,37.3,30.02,SSW,202,0.0,4.0,38,0.00,,,0.86,WUHU21623XXSP,2013-02-11 02:00:00,
2013-02-10 20:01:00,63.3,37.1,30.02,WSW,247,2.0,4.0,38,0.00,,,0.86,WUHU21623XXSP,2013-02-11 02:01:00,
2013-02-10 20:02:00,63.3,37.1,30.02,SW,225,2.0,4.0,38,0.00,,,0.86,WUHU21623XXSP,2013-02-11 02:02:00,
2013-02-10 20:04:00,63.3,37.1,30.02,SW,225,0.0,2.0,38,0.00,,,0.86,WUHU21623XXSP,2013-02-11 02:04:00,
2013-02-10 20:05:00,63.3,37.1,30.02,SW,225,0.0,2.0,38,0.00,,,0.86,WUHU21623XXSP,2013-02-11 02:05:00,
2013-02-10 20:06:00,63.3,37.1,30.02,SW,225,1.0,2.0,38,0.00,,,0.86,WUHU21623XXSP,2013-02-11 02:06:00,
2013-02-10 20:07:00,63.3,37.1,30.02,SSW,213,1.0,2.0,38,0.00,,,0.86,WUHU21623XXSP,2013-02-11 02:07:00,
2013-02-10 20:09:00,63.1,37.0,30.02,SW,225,2.0,2.0,38,0.00,,,0.86,WUHU21623XXSP,2013-02-11 02:09:00,
2013-02-10 20:10:00,63.1,37.0,30.02,SW,232,2.0,2.0,38,0.00,,,0.86,WUHU21623XXSP,2013-02-11 02:10:00,
2013-02-10 20:11:00,63.1,37.0,30.02,SW,224,2.0,2.0,38,0.00,,,0.86,WUHU21623XXSP,2013-02-11 02:11:00,
2013-02-10 20:12:00,63.1,37.0,30.02,SSW,202,2.0,2.0,38,0.00,,,0.86,WUHU21623XXSP,2013-02-11 02:12:00,
2013-02-10 20:15:00,63.1,37.0,30.02,SSW,202,0.0,2.0,38,0.00,,,0.86,WUHU21623XXSP,2013-02-11 02:15:00,
2013-02-10 20:16:00,63.0,36.8,30.02,SSW,202,0.0,2.0,38,0.00,,,0.86,WUHU21623XXSP,2013-02-11 02:16:00,
2013-02-10 20:18:00,63.0,36.8,30.02,South,180,2.0,2.0,38,0.00,,,0.86,WUHU21623XXSP,2013-02-11 02:18:00,
2013-02-10 20:20:00,63.0,36.8,30.03,South,180,0.0,2.0,38,0.00,,,0.86,WUHU21623XXSP,2013-02-11 02:20:00,
2013-02-10 20:21:00,63.0,36.8,30.03,South,180,0.0,2.0,38,0.00,,,0.86,WUHU21623XXSP,2013-02-11 02:21:00,
2013-02-10 20:23:00,62.8,36.7,30.02,South,180,0.0,2.0,38,0.00,,,0.86,WUHU21623XXSP,2013-02-11 02:23:00,
2013-02-10 20:25:00,62.8,37.4,30.03,South,180,0.0,2.0,39,0.00,,,0.86,WUHU21623XXSP,2013-02-11 02:25:00,
2013-02-10 20:26:00,62.8,37.4,30.03,South,180,0.0,2.0,39,0.00,,,0.86,WUHU21623XXSP,2013-02-11 02:26:00,
2013-02-10 20:28:00,62.6,37.2,30.03,South,180,0.0,0.0,39,0.00,,,0.86,WUHU21623XXSP,2013-02-11 02:28:00,
2013-02-10 20:30:00,62.4,37.1,30.04,South,180,0.0,0.0,39,0.00,,,0.86,WUHU21623XXSP,2013-02-11 02:30:00,
2013-02-10 20:31:00,62.4,37.1,30.04,NW,315,0.0,0.0,39,0.00,,,0.86,WUHU21623XXSP,2013-02-11 02:31:00,
2013-02-10 20:33:00,62.4,37.1,30.04,NNW,337,0.0,0.0,39,0.00,,,0.86,WUHU21623XXSP,2013-02-11 02:33:00,
2013-02-10 20:35:00,62.2,36.9,30.04,NNW,337,0.0,0.0,39,0.00,,,0.86,WUHU21623XXSP,2013-02-11 02:35:00,
2013-02-10 20:36:00,62.2,36.9,30.04,NW,315,0.0,0.0,39,0.00,,,0.86,WUHU21623XXSP,2013-02-11 02:36:00,
2013-02-10 20:38:00,62.1,36.7,30.04,WNW,292,0.0,0.0,39,0.00,,,0.86,WUHU21623XXSP,2013-02-11 02:38:00,
2013-02-10 20:40:00,61.9,36.6,30.04,NNW,337,2.0,2.0,39,0.00,,,0.86,WUHU21623XXSP,2013-02-11 02:40:00,
2013-02-10 20:41:00,61.9,36.6,30.04,NNW,337,1.0,2.0,39,0.00,,,0.86,WUHU21623XXSP,2013-02-11 02:41:00,
2013-02-10 20:42:00,61.7,36.4,30.04,NNW,337,2.0,2.0,39,0.00,,,0.86,WUHU21623XXSP,2013-02-11 02:42:00,
2013-02-10 20:43:00,61.7,36.4,30.04,NNW,337,1.0,2.0,39,0.00,,,0.86,WUHU21623XXSP,2013-02-11 02:43:00,
2013-02-10 20:46:00,61.5,36.2,30.04,NNW,337,2.0,2.0,39,0.00,,,0.86,WUHU21623XXSP,2013-02-11 02:46:00,
2013-02-10 20:47:00,61.5,36.2,30.04,NW,315,0.0,2.0,39,0.00,,,0.86,WUHU21623XXSP,2013-02-11 02:47:00,
2013-02-10 20:48:00,61.5,36.2,30.05,NW,315,0.0,2.0,39,0.00,,,0.86,WUHU21623XXSP,2013-02-11 02:48:00,
2013-02-10 20:51:00,61.5,36.2,30.04,NW,315,0.0,2.0,39,0.00,,,0.86,WUHU21623XXSP,2013-02-11 02:51:00,
2013-02-10 20:52:00,61.5,36.2,30.05,NW,315,2.0,2.0,39,0.00,,,0.86,WUHU21623XXSP,2013-02-11 02:52:00,
2013-02-10 20:53:00,61.5,36.2,30.05,NW,315,2.0,2.0,39,0.00,,,0.86,WUHU21623XXSP,2013-02-11 02:53:00,
2013-02-10 20:54:00,61.5,36.2,30.05,NW,315,2.0,2.0,39,0.00,,,0.86,WUHU21623XXSP,2013-02-11 02:54:00,
2013-02-10 20:56:00,61.3,36.1,30.05,NW,315,0.0,2.0,39,0.00,,,0.86,WUHU21623XXSP,2013-02-11 02:56:00,
2013-02-10 20:58:00,61.3,36.1,30.04,NW,315,0.0,2.0,39,0.00,,,0.86,WUHU21623XXSP,2013-02-11 02:58:00,
2013-02-10 20:59:00,61.3,36.1,30.04,NW,315,0.0,2.0,39,0.00,,,0.86,WUHU21623XXSP,2013-02-11 02:59:00,
2013-02-10 21:01:00,61.3,36.1,30.04,NW,315,0.0,2.0,39,0.00,,,0.86,WUHU21623XXSP,2013-02-11 03:01:00,
2013-02-10 21:03:00,61.3,36.1,30.04,NW,315,0.0,0.0,39,0.00,,,0.86,WUHU21623XXSP,2013-02-11 03:03:00,
2013-02-10 21:04:00,61.3,36.1,30.04,NW,315,0.0,0.0,40,0.00,,,0.86,WUHU21623XXSP,2013-02-11 03:04:00,
2013-02-10 21:06:00,61.2,36.6,30.04,NNW,337,0.0,0.0,40,0.00,,,0.86,WUHU21623XXSP,2013-02-11 03:06:00,
2013-02-10 21:08:00,61.2,36.6,30.04,North,0,0.0,0.0,40,0.00,,,0.86,WUHU21623XXSP,2013-02-11 03:08:00,
2013-02-10 21:09:00,61.2,36.6,30.04,North,0,0.0,0.0,40,0.00,,,0.86,WUHU21623XXSP,2013-02-11 03:09:00,
2013-02-10 21:11:00,61.2,36.6,30.04,North,0,0.0,0.0,40,0.00,,,0.86,WUHU21623XXSP,2013-02-11 03:11:00,
2013-02-10 21:13:00,61.2,36.6,30.05,North,0,0.0,0.0,40,0.00,,,0.86,WUHU21623XXSP,2013-02-11 03:13:00,
2013-02-10 21:14:00,61.2,36.6,30.05,North,0,0.0,0.0,40,0.00,,,0.86,WUHU21623XXSP,2013-02-11 03:14:00,
2013-02-10 21:16:00,61.2,36.6,30.04,North,0,0.0,0.0,40,0.00,,,0.86,WUHU21623XXSP,2013-02-11 03:16:00,
2013-02-10 21:18:00,61.0,36.5,30.04,North,0,0.0,0.0,40,0.00,,,0.86,WUHU21623XXSP,2013-02-11 03:18:00,
2013-02-10 21:19:00,61.0,36.5,30.04,North,0,0.0,0.0,40,0.00,,,0.86,WUHU21623XXSP,2013-02-11 03:19:00,
2013-02-10 21:22:00,61.0,36.5,30.05,North,0,0.0,0.0,40,0.00,,,0.86,WUHU21623XXSP,2013-02-11 03:22:00,
2013-02-10 21:23:00,61.0,36.5,30.04,North,0,0.0,0.0,40,0.00,,,0.86,WUHU21623XXSP,2013-02-11 03:23:00,
2013-02-10 21:24:00,61.0,36.5,30.04,North,0,0.0,0.0,40,0.00,,,0.86,WUHU21623XXSP,2013-02-11 03:24:00,
2013-02-10 21:27:00,61.0,36.5,30.04,NE,45,0.0,0.0,40,0.00,,,0.86,WUHU21623XXSP,2013-02-11 03:27:00,
2013-02-10 21:28:00,60.8,36.3,30.04,East,90,0.0,0.0,40,0.00,,,0.86,WUHU21623XXSP,2013-02-11 03:28:00,
2013-02-10 21:29:00,60.8,36.3,30.04,ESE,112,0.0,0.0,40,0.00,,,0.86,WUHU21623XXSP,2013-02-11 03:29:00,
2013-02-10 21:32:00,60.6,36.2,30.04,ESE,112,2.0,2.0,40,0.00,,,0.86,WUHU21623XXSP,2013-02-11 03:32:00,
2013-02-10 21:33:00,60.6,36.2,30.04,ESE,112,2.0,2.0,40,0.00,,,0.86,WUHU21623XXSP,2013-02-11 03:33:00,
2013-02-10 21:34:00,60.6,36.7,30.04,ESE,112,2.0,2.0,41,0.00,,,0.86,WUHU21623XXSP,2013-02-11 03:34:00,
2013-02-10 21:35:00,60.6,36.7,30.04,ESE,112,2.0,2.0,41,0.00,,,0.86,WUHU21623XXSP,2013-02-11 03:35:00,
2013-02-10 21:37:00,60.6,36.7,30.04,ESE,112,2.0,2.0,41,0.00,,,0.86,WUHU21623XXSP,2013-02-11 03:37:00,
2013-02-10 21:39:00,60.6,36.7,30.04,ESE,112,2.0,2.0,41,0.00,,,0.86,WUHU21623XXSP,2013-02-11 03:39:00,
2013-02-10 21:40:00,60.6,36.7,30.04,ESE,106,2.0,2.0,41,0.00,,,0.86,WUHU21623XXSP,2013-02-11 03:40:00,
2013-02-10 21:42:00,60.4,36.6,30.05,ESE,112,2.0,2.0,41,0.00,,,0.86,WUHU21623XXSP,2013-02-11 03:42:00,
2013-02-10 21:44:00,60.4,36.6,30.05,ESE,119,2.0,2.0,41,0.00,,,0.86,WUHU21623XXSP,2013-02-11 03:44:00,
2013-02-10 21:45:00,60.4,36.6,30.05,SE,135,2.0,2.0,41,0.00,,,0.86,WUHU21623XXSP,2013-02-11 03:45:00,
2013-02-10 21:47:00,60.4,36.6,30.05,SE,135,2.0,2.0,41,0.00,,,0.86,WUHU21623XXSP,2013-02-11 03:47:00,
2013-02-10 21:49:00,60.3,36.4,30.05,SE,135,2.0,2.0,41,0.00,,,0.86,WUHU21623XXSP,2013-02-11 03:49:00,
2013-02-10 21:50:00,60.3,36.4,30.05,SE,135,3.0,3.0,41,0.00,,,0.86,WUHU21623XXSP,2013-02-11 03:50:00,
2013-02-10 21:53:00,60.1,36.2,30.06,SSE,157,2.0,4.0,41,0.00,,,0.86,WUHU21623XXSP,2013-02-11 03:53:00,
2013-02-10 21:54:00,60.1,36.2,30.06,SSE,157,2.0,4.0,41,0.00,,,0.86,WUHU21623XXSP,2013-02-11 03:54:00,
2013-02-10 21:55:00,60.1,36.2,30.06,SSE,150,2.0,4.0,41,0.00,,,0.86,WUHU21623XXSP,2013-02-11 03:55:00,
2013-02-10 21:58:00,59.9,36.7,30.06,SSE,154,2.0,4.0,42,0.00,,,0.86,WUHU21623XXSP,2013-02-11 03:58:00,
2013-02-10 21:59:00,59.9,36.7,30.06,SSE,151,2.0,4.0,42,0.00,,,0.86,WUHU21623XXSP,2013-02-11 03:59:00,
2013-02-10 22:00:00,59.9,36.7,30.06,SSE,157,2.0,4.0,42,0.00,,,0.86,WUHU21623XXSP,2013-02-11 04:00:00,
2013-02-10 22:03:00,59.7,36.5,30.06,SSE,149,1.0,3.0,42,0.00,,,0.86,WUHU21623XXSP,2013-02-11 04:03:00,
2013-02-10 22:04:00,59.7,36.5,30.06,SE,141,2.0,3.0,42,0.00,,,0.86,WUHU21623XXSP,2013-02-11 04:04:00,
2013-02-10 22:05:00,59.7,36.5,30.06,SE,135,2.0,3.0,42,0.00,,,0.86,WUHU21623XXSP,2013-02-11 04:05:00,
2013-02-10 22:08:00,59.7,36.5,30.06,SSE,157,1.0,2.0,42,0.00,,,0.86,WUHU21623XXSP,2013-02-11 04:08:00,
2013-02-10 22:09:00,59.5,36.3,30.07,SSE,157,2.0,2.0,42,0.00,,,0.86,WUHU21623XXSP,2013-02-11 04:09:00,
2013-02-10 22:10:00,59.5,36.3,30.07,SSE,162,2.0,2.0,42,0.00,,,0.86,WUHU21623XXSP,2013-02-11 04:10:00,
2013-02-10 22:13:00,59.5,36.3,30.07,SSE,157,0.0,2.0,42,0.00,,,0.86,WUHU21623XXSP,2013-02-11 04:13:00,
2013-02-10 22:14:00,59.5,36.3,30.07,SSE,157,0.0,2.0,42,0.00,,,0.86,WUHU21623XXSP,2013-02-11 04:14:00,
2013-02-10 22:15:00,59.5,36.3,30.07,SSE,157,0.0,2.0,42,0.00,,,0.86,WUHU21623XXSP,2013-02-11 04:15:00,
2013-02-10 22:18:00,59.4,36.2,30.07,South,180,0.0,2.0,42,0.00,,,0.86,WUHU21623XXSP,2013-02-11 04:18:00,
2013-02-10 22:19:00,59.4,36.2,30.07,South,180,0.0,2.0,42,0.00,,,0.86,WUHU21623XXSP,2013-02-11 04:19:00,
2013-02-10 22:20:00,59.2,36.0,30.07,South,180,0.0,0.0,42,0.00,,,0.86,WUHU21623XXSP,2013-02-11 04:20:00,
2013-02-10 22:21:00,59.2,36.0,30.07,South,180,0.0,0.0,42,0.00,,,0.86,WUHU21623XXSP,2013-02-11 04:21:00,
2013-02-10 22:24:00,59.0,35.9,30.07,South,180,0.0,0.0,42,0.00,,,0.86,WUHU21623XXSP,2013-02-11 04:24:00,
2013-02-10 22:25:00,58.8,35.7,30.06,South,180,0.0,0.0,42,0.00,,,0.86,WUHU21623XXSP,2013-02-11 04:25:00,
2013-02-10 22:26:00,58.8,35.7,30.06,South,180,0.0,0.0,42,0.00,,,0.86,WUHU21623XXSP,2013-02-11 04:26:00,
2013-02-10 22:29:00,58.8,35.7,30.07,South,180,0.0,0.0,42,0.00,,,0.86,WUHU21623XXSP,2013-02-11 04:29:00,
2013-02-10 22:31:00,58.8,35.7,30.07,South,180,0.0,0.0,42,0.00,,,0.86,WUHU21623XXSP,2013-02-11 04:31:00,
2013-02-10 22:34:00,58.8,35.7,30.07,NW,315,0.0,0.0,42,0.00,,,0.86,WUHU21623XXSP,2013-02-11 04:34:00,
2013-02-10 22:35:00,58.8,35.7,30.07,NW,315,0.0,0.0,42,0.00,,,0.86,WUHU21623XXSP,2013-02-11 04:35:00,
2013-02-10 22:36:00,58.8,35.7,30.07,NNW,337,0.0,0.0,42,0.00,,,0.86,WUHU21623XXSP,2013-02-11 04:36:00,
2013-02-10 22:39:00,58.6,35.5,30.07,North,0,2.0,2.0,42,0.00,,,0.86,WUHU21623XXSP,2013-02-11 04:39:00,
2013-02-10 22:40:00,58.6,35.5,30.07,North,0,2.0,2.0,42,0.00,,,0.86,WUHU21623XXSP,2013-02-11 04:40:00,
2013-02-10 22:41:00,58.5,35.9,30.07,North,8,2.0,2.0,43,0.00,,,0.86,WUHU21623XXSP,2013-02-11 04:41:00,
2013-02-10 22:44:00,58.3,35.8,30.07,NNE,22,2.0,3.0,43,0.00,,,0.86,WUHU21623XXSP,2013-02-11 04:44:00,
2013-02-10 22:45:00,58.3,35.8,30.07,NNE,22,3.0,3.0,43,0.00,,,0.86,WUHU21623XXSP,2013-02-11 04:45:00,
2013-02-10 22:46:00,58.3,35.8,30.07,NNE,22,3.0,4.0,43,0.00,,,0.86,WUHU21623XXSP,2013-02-11 04:46:00,
2013-02-10 22:50:00,57.9,35.5,30.07,NNE,15,2.0,4.0,43,0.00,,,0.86,WUHU21623XXSP,2013-02-11 04:50:00,
2013-02-10 22:51:00,57.9,35.5,30.07,North,0,0.0,4.0,43,0.00,,,0.86,WUHU21623XXSP,2013-02-11 04:51:00,
2013-02-10 22:55:00,57.9,35.5,30.07,NNW,337,0.0,4.0,43,0.00,,,0.86,WUHU21623XXSP,2013-02-11 04:55:00,
2013-02-10 22:56:00,57.9,35.5,30.08,NNW,337,0.0,2.0,43,0.00,,,0.86,WUHU21623XXSP,2013-02-11 04:56:00,
2013-02-10 23:00:00,57.9,36.0,30.08,NW,315,0.0,0.0,44,0.00,,,0.86,WUHU21623XXSP,2013-02-11 05:00:00,
2013-02-10 23:05:00,57.7,35.9,30.08,WNW,292,3.0,3.0,44,0.00,,,0.86,WUHU21623XXSP,2013-02-11 05:05:00,
2013-02-10 23:10:00,57.4,35.5,30.08,WNW,303,2.0,3.0,44,0.00,,,0.86,WUHU21623XXSP,2013-02-11 05:10:00,
2013-02-10 23:15:00,56.8,35.6,30.07,NNW,332,1.0,3.0,45,0.00,,,0.86,WUHU21623XXSP,2013-02-11 05:15:00,
2013-02-10 23:20:00,56.8,35.6,30.09,WSW,247,2.0,2.0,45,0.00,,,0.86,WUHU21623XXSP,2013-02-11 05:20:00,
2013-02-10 23:21:00,56.8,35.6,30.09,WSW,247,2.0,2.0,45,0.00,,,0.86,WUHU21623XXSP,2013-02-11 05:21:00,
2013-02-10 23:25:00,56.7,35.4,30.09,West,270,0.0,2.0,45,0.00,,,0.86,WUHU21623XXSP,2013-02-11 05:25:00,
2013-02-10 23:26:00,56.7,35.4,30.09,West,270,0.0,2.0,45,0.00,,,0.86,WUHU21623XXSP,2013-02-11 05:26:00,
2013-02-10 23:30:00,56.8,35.6,30.08,WNW,292,0.0,2.0,45,0.00,,,0.86,WUHU21623XXSP,2013-02-11 05:30:00,
2013-02-10 23:31:00,56.8,35.6,30.08,WNW,292,0.0,2.0,45,0.00,,,0.86,WUHU21623XXSP,2013-02-11 05:31:00,
2013-02-10 23:35:00,56.8,35.6,30.09,NNW,332,2.0,2.0,45,0.00,,,0.86,WUHU21623XXSP,2013-02-11 05:35:00,
2013-02-10 23:36:00,57.0,35.8,30.09,NNW,332,2.0,2.0,45,0.00,,,0.86,WUHU21623XXSP,2013-02-11 05:36:00,
2013-02-10 23:41:00,56.8,35.6,30.09,NNW,337,2.0,2.0,45,0.00,,,0.86,WUHU21623XXSP,2013-02-11 05:41:00,
2013-02-10 23:46:00,56.8,35.6,30.10,NNW,337,0.0,2.0,45,0.00,,,0.86,WUHU21623XXSP,2013-02-11 05:46:00,
2013-02-10 23:47:00,56.8,35.6,30.10,NW,315,0.0,2.0,45,0.00,,,0.86,WUHU21623XXSP,2013-02-11 05:47:00,
2013-02-10 23:51:00,56.8,35.6,30.10,NE,45,0.0,0.0,45,0.00,,,0.86,WUHU21623XXSP,2013-02-11 05:51:00,
2013-02-10 23:52:00,56.8,35.6,30.10,NE,45,0.0,0.0,45,0.00,,,0.86,WUHU21623XXSP,2013-02-11 05:52:00,
2013-02-10 23:56:00,57.0,35.8,30.10,ENE,67,0.0,0.0,45,0.00,,,0.86,WUHU21623XXSP,2013-02-11 05:56:00,
2013-02-10 23:57:00,57.0,35.8,30.10,ENE,67,0.0,0.0,45,0.00,,,0.86,WUHU21623XXSP,2013-02-11 05:57:00,